LU6FG Weather Reports


Display with metric or nautical units.
time (UTC)temp
F
wind
direction
speed
MPH
gust
MPH
rain 1hr
in
rain 24hr
in
rain mn
in
humidity
%
barometer
mb
20260505213909 76 79 1.0 4.0 0.00 0.00 0.00 88 1010.4
20260505213809 76 76 0.0 4.0 0.00 0.00 0.00 88 1010.3
20260505213730 76 77 0.0 4.0 0.00 0.00 0.00 88 1010.1
20260505213609 76 75 1.0 4.0 0.00 0.00 0.00 88 1010.1
20260505213509 76 72 1.0 4.0 0.00 0.00 0.00 88 1010.1
20260505213409 76 72 0.0 4.0 0.00 0.00 0.00 88 1010.1
20260505213309 76 74 1.0 4.0 0.00 0.00 0.00 88 1010.2
20260505213209 76 77 1.0 4.0 0.00 0.00 0.00 89 1010.1
20260505213109 76 79 2.0 4.0 0.00 0.00 0.00 89 1010.2
20260505213009 76 79 1.0 4.0 0.00 0.00 0.00 89 1010.1
20260505212908 76 82 1.0 4.0 0.00 0.00 0.00 89 1010.1
20260505212808 76 84 2.0 4.0 0.00 0.00 0.00 89 1010.1
20260505212730 76 83 2.0 4.0 0.00 0.00 0.00 89 1010.1
20260505212609 76 85 2.0 4.0 0.00 0.00 0.00 89 1010.2
20260505212509 76 85 2.0 4.0 0.00 0.00 0.00 89 1010.2
20260505212409 76 86 2.0 4.0 0.00 0.00 0.00 89 1010.1
20260505212308 76 85 2.0 4.0 0.00 0.00 0.00 88 1010.2
20260505212231 76 83 2.0 4.0 0.00 0.00 0.00 88 1010.2
20260505212109 76 82 1.0 2.0 0.00 0.00 0.00 88 1010.1
20260505212030 76 82 2.0 2.0 0.00 0.00 0.00 88 1010.1
20260505211909 76 79 1.0 2.0 0.00 0.00 0.00 88 1010.1
20260505211808 76 78 2.0 2.0 0.00 0.00 0.00 88 1010.1
20260505211729 76 81 1.0 2.0 0.00 0.00 0.00 88 1010.2
20260505211608 76 81 0.0 2.0 0.00 0.00 0.00 88 1010.2
20260505211509 76 85 0.0 2.0 0.00 0.00 0.00 88 1010.2
20260505211430 76 84 0.0 2.0 0.00 0.00 0.00 88 1010.1
20260505211329 76 83 0.0 2.0 0.00 0.00 0.00 88 1010.1
20260505211209 76 86 0.0 2.0 0.00 0.00 0.00 88 1010.1
20260505211108 76 87 0.0 2.0 0.00 0.00 0.00 88 1010.2
20260505211009 76 85 2.0 2.0 0.00 0.00 0.00 88 1010.1
20260505210908 76 83 1.0 2.0 0.00 0.00 0.00 88 1010.2
20260505210808 76 85 0.0 2.0 0.00 0.00 0.00 88 1010.1
20260505210709 76 84 1.0 2.0 0.00 0.00 0.00 88 1010.2
20260505210609 76 84 1.0 2.0 0.00 0.00 0.00 88 1010.2
20260505210509 76 84 1.0 2.0 0.00 0.00 0.00 88 1010.1
20260505210409 76 85 0.0 2.0 0.00 0.00 0.00 88 1010.1
20260505210309 76 85 1.0 2.0 0.00 0.00 0.00 88 1010.1
20260505210209 76 85 1.0 2.0 0.00 0.00 0.00 88 1010.1
20260505210109 76 85 1.0 2.0 0.00 0.00 0.00 88 1010.2
20260505210030 76 86 1.0 4.0 0.00 0.00 0.00 88 1010.0
20260505205909 76 88 1.0 4.0 0.00 0.00 0.00 88 1010.2
20260505205809 76 87 1.0 4.0 0.00 0.00 0.00 88 1010.0
20260505205730 76 87 1.0 4.0 0.00 0.00 0.00 88 1009.9
20260505205630 76 89 1.0 4.0 0.00 0.00 0.00 88 1010.0
20260505205509 76 89 2.0 4.0 0.00 0.00 0.00 88 1009.9
20260505205409 76 89 2.0 4.0 0.00 0.00 0.00 88 1009.8
20260505205309 76 89 2.0 4.0 0.00 0.00 0.00 88 1009.9
20260505205209 76 89 1.0 4.0 0.00 0.00 0.00 88 1009.8
20260505205109 76 89 2.0 4.0 0.00 0.00 0.00 88 1009.8
20260505205009 76 85 2.0 4.0 0.00 0.00 0.00 88 1010.0
20260505204909 76 86 1.0 4.0 0.00 0.00 0.00 88 1009.9
20260505204808 76 90 2.0 4.0 0.00 0.00 0.00 88 1009.9
20260505204709 76 91 2.0 4.0 0.00 0.00 0.00 88 1010.0
20260505204609 76 91 2.0 4.0 0.00 0.00 0.00 88 1009.8
20260505204509 76 91 2.0 4.0 0.00 0.00 0.00 88 1009.8
20260505204409 76 92 2.0 4.0 0.00 0.00 0.00 87 1009.9
20260505204309 76 95 2.0 4.0 0.00 0.00 0.00 87 1009.9
20260505204230 76 95 2.0 4.0 0.00 0.00 0.00 87 1009.9
20260505204109 76 94 2.0 4.0 0.00 0.00 0.00 87 1009.9
20260505204008 76 96 2.0 4.0 0.00 0.00 0.00 87 1010.0
20260505203909 77 96 2.0 4.0 0.00 0.00 0.00 87 1009.9
20260505203809 77 94 2.0 4.0 0.00 0.00 0.00 87 1009.9
20260505203708 77 89 1.0 4.0 0.00 0.00 0.00 87 1010.0
20260505203609 77 87 2.0 4.0 0.00 0.00 0.00 87 1009.9
20260505203508 77 87 2.0 4.0 0.00 0.00 0.00 87 1010.1
20260505203408 77 86 2.0 4.0 0.00 0.00 0.00 87 1009.9
20260505203308 77 86 2.0 4.0 0.00 0.00 0.00 87 1010.0
20260505203208 77 85 1.0 4.0 0.00 0.00 0.00 87 1009.8
20260505203130 77 84 2.0 6.0 0.00 0.00 0.00 87 1010.0
20260505203009 77 77 2.0 6.0 0.00 0.00 0.00 87 1010.0
20260505202930 77 78 2.0 6.0 0.00 0.00 0.00 87 1010.0
20260505202830 77 78 2.0 6.0 0.00 0.00 0.00 87 1010.0
20260505202709 77 78 2.0 6.0 0.00 0.00 0.00 87 1010.0
20260505202630 77 79 2.0 6.0 0.00 0.00 0.00 87 1010.0
20260505202509 77 78 3.0 6.0 0.00 0.00 0.00 87 1010.1
20260505202409 77 79 2.0 6.0 0.00 0.00 0.00 87 1010.0
20260505202309 77 76 2.0 6.0 0.00 0.00 0.00 86 1009.7
20260505202209 77 76 2.0 6.0 0.00 0.00 0.00 86 1009.9
20260505202109 77 77 4.0 6.0 0.00 0.00 0.00 86 1009.8
20260505202009 77 83 4.0 6.0 0.00 0.00 0.00 86 1010.1
20260505201909 77 85 2.0 6.0 0.00 0.00 0.00 86 1010.1
20260505201808 77 85 2.0 6.0 0.00 0.00 0.00 86 1010.1
20260505201709 78 86 2.0 6.0 0.00 0.00 0.00 86 1010.0
20260505201608 78 87 1.0 6.0 0.00 0.00 0.00 86 1010.0
20260505201530 78 87 2.0 6.0 0.00 0.00 0.00 86 1009.8
20260505201430 78 86 2.0 6.0 0.00 0.00 0.00 86 1010.1
20260505201309 78 84 2.0 6.0 0.00 0.00 0.00 86 1010.1
20260505201209 78 85 2.0 6.0 0.00 0.00 0.00 86 1010.0
20260505201130 78 83 2.0 4.0 0.00 0.00 0.00 86 1010.0
20260505201009 78 83 2.0 4.0 0.00 0.00 0.00 85 1010.0
20260505200909 78 83 1.0 2.0 0.00 0.00 0.00 85 1010.0
20260505200808 78 80 1.0 2.0 0.00 0.00 0.00 85 1009.8
20260505200709 78 76 1.0 2.0 0.00 0.00 0.00 85 1010.1
20260505200609 78 75 1.0 2.0 0.00 0.00 0.00 85 1010.2
20260505200509 78 75 1.0 2.0 0.00 0.00 0.00 85 1010.0
20260505200409 78 75 2.0 2.0 0.00 0.00 0.00 85 1010.1
20260505200309 78 80 1.0 4.0 0.00 0.00 0.00 85 1010.0
20260505200209 78 83 0.0 4.0 0.00 0.00 0.00 85 1009.9
20260505200109 78 84 1.0 4.0 0.00 0.00 0.00 85 1010.0
20260505200030 78 86 2.0 4.0 0.00 0.00 0.00 85 1010.0
20260505195909 78 87 2.0 4.0 0.00 0.00 0.00 85 1010.0
20260505195830 78 88 2.0 4.0 0.00 0.00 0.00 85 1010.0
20260505195709 78 88 2.0 4.0 0.00 0.00 0.00 85 1010.0
20260505195609 78 89 2.0 4.0 0.00 0.00 0.00 85 1010.1
20260505195531 78 89 1.0 4.0 0.00 0.00 0.00 85 1010.0
20260505195430 78 89 0.0 4.0 0.00 0.00 0.00 85 1010.0
20260505195309 78 85 2.0 4.0 0.00 0.00 0.00 85 1010.1
20260505195230 78 81 2.0 2.0 0.00 0.00 0.00 85 1010.0
20260505195109 78 76 1.0 4.0 0.00 0.00 0.00 84 1010.0
20260505195009 78 75 1.0 4.0 0.00 0.00 0.00 84 1009.9
20260505194909 78 73 1.0 4.0 0.00 0.00 0.00 85 1009.9
20260505194809 78 76 1.0 4.0 0.00 0.00 0.00 84 1009.9
20260505194730 78 76 2.0 4.0 0.00 0.00 0.00 84 1010.0
20260505194609 78 77 2.0 4.0 0.00 0.00 0.00 84 1009.9
20260505194509 78 78 1.0 4.0 0.00 0.00 0.00 84 1010.0
20260505194409 78 77 2.0 4.0 0.00 0.00 0.00 84 1010.0
20260505194309 78 77 1.0 4.0 0.00 0.00 0.00 84 1010.0
20260505194209 78 78 2.0 4.0 0.00 0.00 0.00 84 1010.1
20260505194108 78 82 1.0 4.0 0.00 0.00 0.00 84 1010.0
20260505194029 78 81 1.0 4.0 0.00 0.00 0.00 85 1010.0
20260505193908 78 82 2.0 4.0 0.00 0.00 0.00 85 1010.2
20260505193809 78 81 2.0 4.0 0.00 0.00 0.00 85 1010.2
20260505193709 78 83 2.0 4.0 0.00 0.00 0.00 85 1010.0
20260505193609 78 84 2.0 4.0 0.00 0.00 0.00 85 1010.0
20260505193508 78 82 1.0 4.0 0.00 0.00 0.00 85 1009.9
20260505193409 78 78 2.0 4.0 0.00 0.00 0.00 85 1009.9
20260505193330 78 78 1.0 4.0 0.00 0.00 0.00 85 1010.0
20260505193208 78 75 1.0 4.0 0.00 0.00 0.00 85 1010.1
20260505193108 78 72 2.0 4.0 0.00 0.00 0.00 85 1010.1
20260505193010 78 72 2.0 4.0 0.00 0.00 0.00 85 1009.9
20260505192909 78 71 2.0 4.0 0.00 0.00 0.00 85 1010.0
20260505192809 78 68 2.0 4.0 0.00 0.00 0.00 85 1010.0
20260505192729 78 66 3.0 4.0 0.00 0.00 0.00 85 1010.0
20260505192629 78 62 3.0 4.0 0.00 0.00 0.00 85 1010.1
20260505192509 78 57 1.0 2.0 0.00 0.00 0.00 85 1010.1
20260505192409 78 63 1.0 2.0 0.00 0.00 0.00 85 1010.1
20260505192310 78 67 1.0 2.0 0.00 0.00 0.00 85 1010.3
20260505192209 78 67 1.0 2.0 0.00 0.00 0.00 84 1010.3
20260505192109 78 67 1.0 2.0 0.00 0.00 0.00 84 1010.3
20260505192008 78 67 1.0 2.0 0.00 0.00 0.00 84 1010.2
20260505191909 78 64 1.0 2.0 0.00 0.00 0.00 84 1010.3
20260505191809 78 68 2.0 4.0 0.00 0.00 0.00 84 1010.1
20260505191709 78 68 2.0 4.0 0.00 0.00 0.00 84 1010.3
20260505191609 78 68 1.0 4.0 0.00 0.00 0.00 84 1010.3
20260505191509 78 71 0.0 4.0 0.00 0.00 0.00 84 1010.4
20260505191409 78 73 0.0 4.0 0.00 0.00 0.00 84 1010.3
20260505191309 78 75 1.0 4.0 0.00 0.00 0.00 84 1010.3
20260505191209 78 77 1.0 4.0 0.00 0.00 0.00 84 1010.3
20260505191130 78 77 1.0 4.0 0.00 0.00 0.00 84 1010.3
20260505191008 78 80 1.0 4.0 0.00 0.00 0.00 84 1010.2
20260505190909 78 81 1.0 4.0 0.00 0.00 0.00 84 1010.4
20260505190830 79 81 2.0 4.0 0.00 0.00 0.00 83 1010.3
20260505190730 79 81 2.0 4.0 0.00 0.00 0.00 83 1010.3
20260505190608 79 83 2.0 2.0 0.00 0.00 0.00 83 1010.2
20260505190508 79 81 1.0 2.0 0.00 0.00 0.00 83 1010.4
20260505190409 79 79 2.0 2.0 0.00 0.00 0.00 83 1010.1
20260505190309 79 77 2.0 2.0 0.00 0.00 0.00 83 1010.4
20260505190230 79 75 2.0 2.0 0.00 0.00 0.00 83 1010.4
20260505190109 79 74 2.0 4.0 0.00 0.00 0.00 83 1010.2
20260505190031 79 74 2.0 4.0 0.00 0.00 0.00 83 1010.3
20260505185909 79 74 0.0 4.0 0.00 0.00 0.00 83 1010.4
20260505185829 79 75 0.0 4.0 0.00 0.00 0.00 83 1010.4
20260505185730 79 80 1.0 4.0 0.00 0.00 0.00 82 1010.4
20260505185608 79 84 2.0 4.0 0.00 0.00 0.00 82 1010.4
20260505185508 79 86 0.0 4.0 0.00 0.00 0.00 82 1010.4
20260505185409 79 86 0.0 4.0 0.00 0.00 0.00 82 1010.4
20260505185309 79 83 2.0 4.0 0.00 0.00 0.00 82 1010.3
20260505185208 79 83 2.0 4.0 0.00 0.00 0.00 82 1010.3
20260505185108 79 85 2.0 4.0 0.00 0.00 0.00 82 1010.4
20260505185008 79 85 2.0 4.0 0.00 0.00 0.00 82 1010.3
20260505184909 79 85 3.0 4.0 0.00 0.00 0.00 82 1010.3
20260505184808 80 84 2.0 4.0 0.00 0.00 0.00 82 1010.4
20260505184708 80 79 3.0 4.0 0.00 0.00 0.00 81 1010.3
20260505184608 80 75 2.0 4.0 0.00 0.00 0.00 81 1010.3
20260505184530 80 74 1.0 4.0 0.00 0.00 0.00 81 1010.4
20260505184430 80 75 1.0 4.0 0.00 0.00 0.00 81 1010.3
20260505184308 80 81 1.0 4.0 0.00 0.00 0.00 81 1010.3
20260505184208 80 82 2.0 4.0 0.00 0.00 0.00 81 1010.2
20260505184108 80 81 2.0 4.0 0.00 0.00 0.00 82 1010.3
20260505184008 79 76 2.0 4.0 0.00 0.00 0.00 82 1010.3
20260505183908 79 72 2.0 4.0 0.00 0.00 0.00 82 1010.4
20260505183808 79 70 2.0 4.0 0.00 0.00 0.00 82 1010.4
20260505183708 79 70 2.0 4.0 0.00 0.00 0.00 82 1010.4
20260505183608 79 68 3.0 4.0 0.00 0.00 0.00 82 1010.4
20260505183529 79 65 2.0 4.0 0.00 0.00 0.00 82 1010.4
20260505183408 79 66 2.0 4.0 0.00 0.00 0.00 82 1010.2
20260505183330 79 66 2.0 4.0 0.00 0.00 0.00 82 1010.5
20260505183209 79 58 2.0 4.0 0.00 0.00 0.00 82 1010.6
20260505183108 79 58 1.0 4.0 0.00 0.00 0.00 82 1010.3
20260505183009 79 64 2.0 4.0 0.00 0.00 0.00 82 1010.5
20260505182930 79 69 2.0 4.0 0.00 0.00 0.00 81 1010.5
20260505182808 79 74 1.0 4.0 0.00 0.00 0.00 81 1010.5
20260505182708 79 79 1.0 4.0 0.00 0.00 0.00 81 1010.6
20260505182608 79 88 2.0 4.0 0.00 0.00 0.00 81 1010.7
20260505182508 79 89 1.0 4.0 0.00 0.00 0.00 81 1010.5
20260505182408 79 89 0.0 4.0 0.00 0.00 0.00 82 1010.4
20260505182308 79 91 2.0 4.0 0.00 0.00 0.00 82 1010.4
20260505182208 79 93 2.0 4.0 0.00 0.00 0.00 81 1010.4
20260505182108 79 94 1.0 4.0 0.00 0.00 0.00 81 1010.4
20260505182008 79 91 2.0 4.0 0.00 0.00 0.00 81 1010.5
20260505181908 79 91 2.0 4.0 0.00 0.00 0.00 81 1010.4
20260505181808 79 89 2.0 4.0 0.00 0.00 0.00 81 1010.5
20260505181709 80 88 2.0 4.0 0.00 0.00 0.00 81 1010.4
20260505181630 80 84 3.0 4.0 0.00 0.00 0.00 80 1010.4
20260505181508 80 71 2.0 4.0 0.00 0.00 0.00 80 1010.2
20260505181408 80 54 2.0 4.0 0.00 0.00 0.00 80 1010.2
20260505181308 81 40 2.0 4.0 0.00 0.00 0.00 79 1010.2
20260505181209 81 20 2.0 4.0 0.00 0.00 0.00 79 1010.3
20260505181108 81 6 2.0 4.0 0.00 0.00 0.00 80 1010.4
20260505181008 81 357 3.0 4.0 0.00 0.00 0.00 79 1010.3
20260505180908 81 349 2.0 4.0 0.00 0.00 0.00 79 1010.3
20260505180830 80 347 2.0 4.0 0.00 0.00 0.00 80 1010.2
20260505180708 80 355 1.0 4.0 0.00 0.00 0.00 80 1010.3
20260505180630 80 360 1.0 4.0 0.00 0.00 0.00 80 1010.3
20260505180508 80 13 2.0 4.0 0.00 0.00 0.00 80 1010.4
20260505180408 80 20 2.0 4.0 0.00 0.00 0.00 81 1010.5
20260505180308 80 28 2.0 4.0 0.00 0.00 0.00 81 1010.3
20260505180208 80 40 2.0 4.0 0.00 0.00 0.00 81 1010.4
20260505180108 80 45 2.0 4.0 0.00 0.00 0.00 81 1010.5
20260505180009 80 48 1.0 4.0 0.00 0.00 0.00 81 1010.4
20260505175909 80 42 2.0 4.0 0.00 0.00 0.00 82 1010.5
20260505175809 79 34 1.0 4.0 0.00 0.00 0.00 82 1010.3
20260505175709 79 30 0.0 4.0 0.00 0.00 0.00 83 1010.5
20260505175608 79 24 2.0 4.0 0.00 0.00 0.00 82 1010.5
20260505175509 79 21 2.0 4.0 0.00 0.00 0.00 82 1010.4
20260505175430 79 20 2.0 4.0 0.00 0.00 0.00 82 1010.4
20260505175309 79 19 2.0 4.0 0.00 0.00 0.00 83 1010.5
20260505175208 79 16 2.0 6.0 0.00 0.00 0.00 82 1010.6
20260505175130 79 16 2.0 6.0 0.00 0.00 0.00 83 1010.5
20260505175009 79 15 2.0 6.0 0.00 0.00 0.00 83 1010.5
20260505174909 78 17 2.0 6.0 0.00 0.00 0.00 83 1010.4
20260505174830 78 21 2.0 6.0 0.00 0.00 0.00 83 1010.6
20260505174708 78 24 3.0 6.0 0.00 0.00 0.00 83 1010.5
20260505174609 78 28 3.0 6.0 0.00 0.00 0.00 83 1010.7
20260505174510 78 29 2.0 6.0 0.00 0.00 0.00 83 1010.6
20260505174409 79 32 2.0 6.0 0.00 0.00 0.00 83 1010.5
20260505174309 79 33 4.0 6.0 0.00 0.00 0.00 83 1010.5
20260505174209 79 33 4.0 6.0 0.00 0.00 0.00 82 1010.5
20260505174129 79 31 2.0 6.0 0.00 0.00 0.00 82 1010.5
20260505174030 79 31 3.0 6.0 0.00 0.00 0.00 82 1010.6
20260505173908 78 32 1.0 4.0 0.00 0.00 0.00 83 1010.8
20260505173808 78 32 2.0 4.0 0.00 0.00 0.00 83 1010.8
20260505173708 78 32 3.0 4.0 0.00 0.00 0.00 83 1010.8
20260505173608 78 31 4.0 4.0 0.00 0.00 0.00 83 1010.9
20260505173508 78 29 3.0 4.0 0.00 0.00 0.00 83 1010.8
20260505173408 78 28 3.0 4.0 0.00 0.00 0.00 83 1010.8
20260505173308 78 30 2.0 4.0 0.00 0.00 0.00 84 1010.9
20260505173208 78 32 2.0 4.0 0.00 0.00 0.00 84 1010.9
20260505173108 78 35 2.0 4.0 0.00 0.00 0.00 84 1010.9
20260505173009 78 37 2.0 4.0 0.00 0.00 0.00 84 1010.8
20260505172908 78 39 2.0 4.0 0.00 0.00 0.00 84 1010.8
20260505172830 78 39 2.0 4.0 0.00 0.00 0.00 84 1010.8
20260505172708 77 37 2.0 2.0 0.00 0.00 0.00 85 1010.9
20260505172608 77 33 2.0 4.0 0.00 0.00 0.00 85 1010.9
20260505172508 77 31 1.0 4.0 0.00 0.00 0.00 85 1011.0
20260505172408 77 28 1.0 4.0 0.00 0.00 0.00 85 1011.0
20260505172329 77 25 1.0 4.0 0.00 0.00 0.00 85 1010.9
20260505172209 77 22 2.0 4.0 0.00 0.00 0.00 85 1010.9
20260505172108 77 23 0.0 4.0 0.00 0.00 0.00 85 1010.9
20260505172008 77 25 0.0 4.0 0.00 0.00 0.00 85 1010.9
20260505171908 77 24 0.0 4.0 0.00 0.00 0.00 85 1011.0
20260505171808 77 24 2.0 4.0 0.00 0.00 0.00 85 1010.8
20260505171708 77 23 2.0 4.0 0.00 0.00 0.00 85 1010.8
20260505171608 77 26 2.0 4.0 0.00 0.00 0.00 85 1011.1
20260505171508 77 28 1.0 2.0 0.00 0.00 0.00 86 1011.0
20260505171408 77 31 1.0 2.0 0.00 0.00 0.00 86 1011.0
20260505171330 77 33 2.0 2.0 0.00 0.00 0.00 86 1010.9
20260505171208 77 36 1.0 2.0 0.00 0.00 0.00 86 1010.8
20260505171108 77 37 1.0 2.0 0.00 0.00 0.00 86 1010.9
20260505171029 77 37 1.0 2.0 0.00 0.00 0.00 86 1010.9
20260505170908 76 39 2.0 2.0 0.00 0.00 0.00 86 1010.9
20260505170808 76 42 1.0 2.0 0.00 0.00 0.00 86 1010.9
20260505170708 76 45 1.0 2.0 0.00 0.00 0.00 86 1010.8
20260505170629 76 45 1.0 2.0 0.00 0.00 0.00 86 1010.8
20260505170508 76 45 1.0 4.0 0.00 0.00 0.00 87 1010.8
20260505170408 76 43 2.0 4.0 0.00 0.00 0.00 86 1011.0
20260505170308 76 44 2.0 4.0 0.00 0.00 0.00 87 1011.1
20260505170230 76 45 2.0 4.0 0.00 0.00 0.00 87 1011.1
20260505170109 76 45 2.0 4.0 0.00 0.00 0.00 87 1011.1
20260505170009 76 42 1.0 4.0 0.00 0.00 0.00 87 1011.1
20260505165908 76 39 1.0 4.0 0.00 0.00 0.00 87 1011.1
20260505165808 76 36 1.0 4.0 0.00 0.00 0.00 87 1011.0
20260505165730 76 35 1.0 4.0 0.00 0.00 0.00 87 1011.0
20260505165608 76 32 2.0 4.0 0.00 0.00 0.00 87 1010.9
20260505165508 76 31 1.0 4.0 0.00 0.00 0.00 88 1010.9
20260505165429 76 31 1.0 4.0 0.00 0.00 0.00 88 1010.9
20260505165308 76 28 2.0 4.0 0.00 0.00 0.00 88 1010.8
20260505165208 76 25 2.0 6.0 0.00 0.00 0.00 88 1010.9
20260505165108 76 25 2.0 6.0 0.00 0.00 0.00 88 1010.8
20260505165008 76 25 3.0 7.0 0.00 0.00 0.00 88 1010.9
20260505164908 76 23 3.0 7.0 0.00 0.00 0.00 88 1010.9
20260505164808 76 23 2.0 7.0 0.00 0.00 0.00 88 1011.2
20260505164708 75 25 2.0 7.0 0.00 0.00 0.00 88 1011.1
20260505164608 75 28 2.0 7.0 0.00 0.00 0.00 88 1011.1
20260505164508 75 27 3.0 7.0 0.00 0.00 0.00 88 1011.1
20260505164429 75 26 2.0 7.0 0.00 0.00 0.00 88 1011.2
20260505164308 75 26 2.0 7.0 0.00 0.00 0.00 88 1011.4
20260505164208 75 25 4.0 7.0 0.00 0.00 0.00 88 1011.2
20260505164108 75 24 3.0 7.0 0.00 0.00 0.00 88 1011.3
20260505164029 75 23 4.0 7.0 0.00 0.00 0.00 88 1011.4
20260505163908 75 26 3.0 7.0 0.00 0.00 0.00 88 1011.4
20260505163808 75 26 3.0 7.0 0.00 0.00 0.00 88 1011.4
20260505163708 75 24 4.0 7.0 0.00 0.00 0.00 88 1011.4
20260505163608 75 20 4.0 7.0 0.00 0.00 0.00 88 1011.4
20260505163509 75 18 3.0 7.0 0.00 0.00 0.00 89 1011.2
20260505163430 75 17 3.0 7.0 0.00 0.00 0.00 89 1011.2
20260505163308 75 15 4.0 6.0 0.00 0.00 0.00 89 1011.3
20260505163209 75 16 3.0 4.0 0.00 0.00 0.00 89 1011.5
20260505163108 75 16 2.0 4.0 0.00 0.00 0.00 89 1011.4
20260505163009 75 14 2.0 4.0 0.00 0.00 0.00 89 1011.3
20260505162909 75 11 2.0 4.0 0.00 0.00 0.00 89 1011.4
20260505162830 75 10 2.0 4.0 0.00 0.00 0.00 89 1011.4
20260505162709 75 14 2.0 4.0 0.00 0.00 0.00 89 1011.3
20260505162608 75 12 2.0 4.0 0.00 0.00 0.00 89 1011.5
20260505162508 75 15 0.0 2.0 0.00 0.00 0.00 90 1011.5
20260505162408 75 12 0.0 2.0 0.00 0.00 0.00 90 1011.6
20260505162330 75 14 1.0 4.0 0.00 0.00 0.00 90 1011.5
20260505162208 74 21 0.0 4.0 0.00 0.00 0.00 90 1011.7
20260505162108 74 21 1.0 4.0 0.00 0.00 0.00 90 1011.6
20260505162029 74 25 0.0 4.0 0.00 0.00 0.00 90 1011.7
20260505161909 74 22 2.0 4.0 0.00 0.00 0.00 90 1011.6
20260505161808 74 25 1.0 4.0 0.00 0.00 0.00 90 1011.5
20260505161708 74 27 2.0 4.0 0.00 0.00 0.00 90 1011.6
20260505161629 74 30 2.0 6.0 0.00 0.00 0.00 90 1011.6
20260505161529 74 33 2.0 6.0 0.00 0.00 0.00 90 1011.5
20260505161408 74 35 2.0 6.0 0.00 0.00 0.00 90 1011.8
20260505161330 74 36 2.0 6.0 0.00 0.00 0.00 91 1011.7
20260505161208 74 35 3.0 6.0 0.00 0.00 0.00 90 1011.6
20260505161109 74 34 4.0 6.0 0.00 0.00 0.00 91 1011.7
20260505161008 74 31 2.0 6.0 0.00 0.00 0.00 91 1011.7
20260505160909 74 32 2.0 6.0 0.00 0.00 0.00 91 1011.6
20260505160830 74 31 3.0 6.0 0.00 0.00 0.00 91 1011.6
20260505160708 74 29 4.0 6.0 0.00 0.00 0.00 91 1011.6
20260505160630 74 29 4.0 7.0 0.00 0.00 0.00 91 1011.6
20260505160508 73 25 3.0 7.0 0.00 0.00 0.00 91 1011.8
20260505160408 73 26 2.0 7.0 0.00 0.00 0.00 91 1011.7
20260505160308 73 25 3.0 7.0 0.00 0.00 0.00 91 1011.7
20260505160208 73 26 4.0 7.0 0.00 0.00 0.00 91 1011.9
20260505160108 73 26 2.0 7.0 0.00 0.00 0.00 91 1011.8
20260505153309 72 35 2.0 7.0 0.00 0.00 0.00 92 1011.9
20260505153208 72 35 4.0 7.0 0.00 0.00 0.00 92 1011.8
20260505153108 72 34 4.0 7.0 0.00 0.00 0.00 92 1011.9
20260505153009 72 36 4.0 7.0 0.00 0.00 0.00 92 1012.0
20260505152908 72 35 4.0 7.0 0.00 0.00 0.00 92 1012.0
20260505152829 72 34 4.0 6.0 0.00 0.00 0.00 93 1012.0
20260505152708 72 37 1.0 4.0 0.00 0.00 0.00 93 1011.9
20260505152608 72 40 1.0 4.0 0.00 0.00 0.00 93 1011.9
20260505152508 72 43 2.0 4.0 0.00 0.00 0.00 93 1012.1
20260505152408 72 45 3.0 6.0 0.00 0.00 0.00 93 1012.1
20260505152308 72 42 2.0 6.0 0.00 0.00 0.00 93 1012.1
20260505152230 72 41 2.0 7.0 0.00 0.00 0.00 93 1012.1
20260505152108 72 38 2.0 7.0 0.00 0.00 0.00 93 1011.9
20260505152009 72 35 2.0 7.0 0.00 0.00 0.00 93 1012.0
20260505151929 72 32 2.0 7.0 0.00 0.00 0.00 93 1012.0
20260505151831 72 28 2.0 7.0 0.00 0.00 0.00 93 1011.8
20260505151708 72 24 3.0 7.0 0.00 0.00 0.00 93 1011.8
20260505151609 72 22 3.0 7.0 0.00 0.00 0.00 93 1012.0
20260505151508 72 17 3.0 7.0 0.00 0.00 0.00 93 1011.8
20260505151408 72 15 3.0 7.0 0.00 0.00 0.00 93 1012.0
20260505151308 72 16 2.0 7.0 0.00 0.00 0.00 93 1012.0
20260505151208 72 11 3.0 7.0 0.00 0.00 0.00 93 1012.1
20260505151108 72 12 2.0 6.0 0.00 0.00 0.00 93 1012.1
20260505151008 72 9 2.0 6.0 0.00 0.00 0.00 93 1012.0
20260505150908 72 10 3.0 6.0 0.00 0.00 0.00 93 1012.0
20260505150808 72 13 3.0 6.0 0.00 0.00 0.00 93 1012.1
20260505150730 72 13 3.0 6.0 0.00 0.00 0.00 93 1012.1
20260505150608 72 12 2.0 6.0 0.00 0.00 0.00 92 1012.0
20260505150508 72 13 2.0 7.0 0.00 0.00 0.00 92 1012.1
20260505150408 72 14 2.0 7.0 0.00 0.00 0.00 92 1012.2
20260505150330 72 12 2.0 7.0 0.00 0.00 0.00 92 1012.0
20260505150208 72 12 3.0 7.0 0.00 0.00 0.00 92 1012.0
20260505150108 72 13 3.0 7.0 0.00 0.00 0.00 92 1012.0
20260505140608 71 9 2.0 4.0 0.00 0.00 0.00 90 1012.7
20260505140508 71 7 2.0 4.0 0.00 0.00 0.00 90 1012.7
20260505140408 71 4 3.0 4.0 0.00 0.00 0.00 90 1012.6
20260505140330 71 4 3.0 6.0 0.00 0.00 0.00 90 1012.9
20260505140208 71 5 2.0 6.0 0.00 0.00 0.00 91 1012.7
20260505140108 71 7 2.0 6.0 0.00 0.00 0.00 91 1012.8
20260505130308 68 16 2.0 6.0 0.00 0.00 0.00 95 1012.8
20260505130208 67 15 2.0 6.0 0.00 0.00 0.00 95 1012.9
20260505130108 67 15 1.0 6.0 0.00 0.00 0.00 95 1012.9
20260505125008 67 31 2.0 6.0 0.00 0.00 0.00 96 1012.8
20260505124908 67 31 2.0 6.0 0.00 0.00 0.00 96 1012.7
20260505124829 67 31 2.0 6.0 0.00 0.00 0.00 96 1012.6
20260505124708 67 29 2.0 6.0 0.00 0.00 0.00 96 1012.6
20260505124630 67 29 2.0 6.0 0.00 0.00 0.00 96 1012.6
20260505124508 67 27 3.0 6.0 0.00 0.00 0.00 96 1012.6
20260505124408 67 30 2.0 6.0 0.00 0.00 0.00 96 1012.6
20260505124308 67 28 3.0 4.0 0.00 0.00 0.00 96 1012.8
20260505124208 67 24 3.0 4.0 0.00 0.00 0.00 96 1012.8
20260505124108 67 23 2.0 6.0 0.00 0.00 0.00 96 1012.8
20260505124008 67 23 2.0 6.0 0.00 0.00 0.00 96 1012.7
20260505123929 67 25 2.0 6.0 0.00 0.00 0.00 96 1012.6
20260505123808 67 23 2.0 6.0 0.00 0.00 0.00 96 1012.9
20260505123708 67 23 3.0 6.0 0.00 0.00 0.00 96 1012.7
20260505123608 67 25 2.0 6.0 0.00 0.00 0.00 96 1012.8
20260505123508 66 25 3.0 6.0 0.00 0.00 0.00 96 1012.7
20260505123408 66 23 3.0 6.0 0.00 0.00 0.00 96 1012.7
20260505123330 66 25 2.0 6.0 0.00 0.00 0.00 96 1012.7
20260505123208 66 30 2.0 6.0 0.00 0.00 0.00 96 1012.5
20260505123130 66 33 4.0 6.0 0.00 0.00 0.00 96 1012.7
20260505123009 66 35 3.0 6.0 0.00 0.00 0.00 96 1012.7
20260505122908 66 34 2.0 6.0 0.00 0.00 0.00 96 1012.5
20260505122808 66 37 2.0 6.0 0.00 0.00 0.00 96 1012.7
20260505122708 66 39 2.0 6.0 0.00 0.00 0.00 96 1012.7
20260505122608 66 39 2.0 6.0 0.00 0.00 0.00 96 1012.7
20260505122508 66 39 2.0 6.0 0.00 0.00 0.00 96 1012.7
20260505122430 66 39 2.0 6.0 0.00 0.00 0.00 96 1012.7
20260505122308 66 36 4.0 6.0 0.00 0.00 0.00 96 1012.7
20260505122208 66 34 4.0 6.0 0.00 0.00 0.00 96 1012.6
20260505122108 66 31 2.0 4.0 0.00 0.00 0.00 96 1012.6
20260505122008 66 28 3.0 4.0 0.00 0.00 0.00 96 1012.7
20260505121929 66 28 2.0 4.0 0.00 0.00 0.00 96 1012.4
20260505121808 66 29 3.0 4.0 0.00 0.00 0.00 96 1012.5
20260505121729 66 28 2.0 4.0 0.00 0.00 0.00 96 1012.5
20260505121608 66 29 2.0 4.0 0.00 0.00 0.00 96 1012.3
20260505121529 66 28 2.0 4.0 0.00 0.00 0.00 96 1012.5
20260505121408 66 30 3.0 4.0 0.00 0.00 0.00 96 1012.5
20260505121330 66 30 1.0 4.0 0.00 0.00 0.00 96 1012.5
20260505121230 66 30 2.0 4.0 0.00 0.00 0.00 96 1012.3
20260505121108 66 30 2.0 6.0 0.00 0.00 0.00 96 1012.4
20260505121009 66 32 2.0 6.0 0.00 0.00 0.00 96 1012.4
20260505120908 66 31 3.0 6.0 0.00 0.00 0.00 96 1012.5
20260505120808 66 29 2.0 6.0 0.00 0.00 0.00 96 1012.5
20260505120708 66 29 3.0 6.0 0.00 0.00 0.00 96 1012.5
20260505120608 66 29 1.0 6.0 0.00 0.00 0.00 96 1012.7
20260505120531 66 30 2.0 6.0 0.00 0.00 0.00 96 1012.4
20260505120408 66 31 2.0 6.0 0.00 0.00 0.00 96 1012.5
20260505120308 65 32 2.0 6.0 0.00 0.00 0.00 96 1012.5
20260505120224 65 32 2.0 6.0 0.00 0.00 0.00 96 1012.4
20260505120129 65 32 4.0 6.0 0.00 0.00 0.00 96 1012.4
20260505120009 65 31 2.0 4.0 0.00 0.00 0.00 96 1012.3
20260505115908 65 30 2.0 4.0 0.00 0.00 0.00 96 1012.5
20260505115808 65 30 2.0 4.0 0.00 0.00 0.00 96 1012.3
20260505115729 65 30 2.0 4.0 0.00 0.00 0.00 96 1012.4
20260505115608 65 28 2.0 4.0 0.00 0.00 0.00 96 1012.4
20260505115508 65 28 2.0 4.0 0.00 0.00 0.00 96 1012.3
20260505115408 65 25 2.0 6.0 0.00 0.00 0.00 96 1012.4
20260505115308 65 24 2.0 6.0 0.00 0.00 0.00 96 1012.4
20260505115208 65 24 2.0 6.0 0.00 0.00 0.00 96 1012.3
20260505115108 65 24 2.0 6.0 0.00 0.00 0.00 96 1012.4
20260505115008 65 24 2.0 6.0 0.00 0.00 0.00 96 1012.3
20260505114908 65 24 2.0 6.0 0.00 0.00 0.00 96 1012.5
20260505114808 65 25 2.0 6.0 0.00 0.00 0.00 96 1012.3
20260505114708 65 27 2.0 6.0 0.00 0.00 0.00 96 1012.2
20260505114608 65 28 2.0 6.0 0.00 0.00 0.00 96 1011.9
20260505114508 65 28 2.0 6.0 0.00 0.00 0.00 96 1012.1
20260505114429 65 28 3.0 6.0 0.00 0.00 0.00 96 1012.1
20260505114308 65 29 2.0 4.0 0.00 0.00 0.00 96 1012.1
20260505114208 65 31 2.0 4.0 0.00 0.00 0.00 96 1012.1
20260505114108 65 31 2.0 4.0 0.00 0.00 0.00 96 1012.1
20260505114008 65 33 2.0 4.0 0.00 0.00 0.00 96 1012.1
20260505113908 65 36 2.0 4.0 0.00 0.00 0.00 96 1012.0
20260505113829 65 37 2.0 4.0 0.00 0.00 0.00 96 1012.0
20260505113730 65 38 2.0 4.0 0.00 0.00 0.00 96 1011.9
20260505113608 65 35 2.0 4.0 0.00 0.00 0.00 96 1012.1
20260505113508 65 33 2.0 4.0 0.00 0.00 0.00 96 1012.0
20260505113408 65 33 2.0 4.0 0.00 0.00 0.00 96 1012.0
20260505113308 65 35 2.0 4.0 0.00 0.00 0.00 96 1012.0
20260505113208 65 34 2.0 4.0 0.00 0.00 0.00 96 1012.0
20260505113108 65 35 2.0 4.0 0.00 0.00 0.00 96 1011.9
20260505113009 65 35 2.0 4.0 0.00 0.00 0.00 96 1012.0
20260505112908 65 35 2.0 4.0 0.00 0.00 0.00 96 1011.9
20260505112808 65 33 2.0 4.0 0.00 0.00 0.00 96 1012.0
20260505112708 65 34 2.0 4.0 0.00 0.00 0.00 96 1011.9
20260505112630 65 37 2.0 4.0 0.00 0.00 0.00 96 1011.9
20260505112508 65 43 2.0 4.0 0.00 0.00 0.00 96 1011.9
20260505112408 65 47 2.0 4.0 0.00 0.00 0.00 96 1011.9
20260505112308 65 48 1.0 4.0 0.00 0.00 0.00 96 1011.8
20260505112208 65 50 2.0 4.0 0.00 0.00 0.00 96 1011.9
20260505112129 65 50 2.0 4.0 0.00 0.00 0.00 96 1011.7
20260505112008 65 52 1.0 4.0 0.00 0.00 0.00 96 1011.7
20260505111908 65 53 2.0 4.0 0.00 0.00 0.00 96 1011.9
20260505111830 65 54 2.0 4.0 0.00 0.00 0.00 96 1011.9
20260505111708 65 53 2.0 4.0 0.00 0.00 0.00 96 1011.6
20260505111608 65 50 2.0 4.0 0.00 0.00 0.00 96 1011.6
20260505111508 65 45 0.0 2.0 0.00 0.00 0.00 96 1011.6
20260505111408 65 45 0.0 2.0 0.00 0.00 0.00 96 1011.6
20260505111308 65 45 0.0 2.0 0.00 0.00 0.00 96 1011.6
20260505111208 65 45 2.0 2.0 0.00 0.00 0.00 96 1011.7
20260505111108 65 45 2.0 2.0 0.00 0.00 0.00 96 1011.8
20260505111008 65 45 1.0 2.0 0.00 0.00 0.00 96 1011.8
20260505110929 65 45 1.0 2.0 0.00 0.00 0.00 96 1011.8
20260505110808 65 45 0.0 2.0 0.00 0.00 0.00 96 1011.8
20260505110708 64 0 0.0 0.0 0.00 0.00 0.00 96 1011.9
20260505110608 64 0 0.0 0.0 0.00 0.00 0.00 96 1011.9
20260505110508 64 22 0.0 2.0 0.00 0.00 0.00 96 1012.0
20260505110429 64 22 0.0 2.0 0.00 0.00 0.00 96 1011.9
20260505110308 64 22 0.0 2.0 0.00 0.00 0.00 96 1012.1
20260505110229 64 22 0.0 2.0 0.00 0.00 0.00 96 1012.1
20260505110130 64 22 0.0 2.0 0.00 0.00 0.00 96 1012.0
20260505102208 64 0 0.0 0.0 0.00 0.00 0.00 95 1011.6
20260505102108 64 0 0.0 0.0 0.00 0.00 0.00 95 1011.5
20260505102008 64 0 0.0 0.0 0.00 0.00 0.00 95 1011.5
20260505101908 64 0 0.0 0.0 0.00 0.00 0.00 95 1011.5
20260505101829 64 0 0.0 0.0 0.00 0.00 0.00 95 1011.5
20260505101708 64 0 0.0 0.0 0.00 0.00 0.00 95 1011.5
20260505101608 64 0 0.0 0.0 0.00 0.00 0.00 95 1011.6
20260505101508 64 0 0.0 0.0 0.00 0.00 0.00 95 1011.6
20260505101408 64 0 0.0 0.0 0.00 0.00 0.00 95 1011.6
20260505101308 64 0 0.0 0.0 0.00 0.00 0.00 95 1011.5
20260505101208 64 0 0.0 0.0 0.00 0.00 0.00 95 1011.4
20260505101108 64 0 0.0 0.0 0.00 0.00 0.00 95 1011.4
20260505101029 64 0 0.0 0.0 0.00 0.00 0.00 95 1011.4
20260505100908 64 0 0.0 0.0 0.00 0.00 0.00 95 1011.5
20260505100808 64 0 0.0 0.0 0.00 0.00 0.00 95 1011.5
20260505100708 64 0 0.0 0.0 0.00 0.00 0.00 95 1011.5
20260505100608 64 0 0.0 0.0 0.00 0.00 0.00 95 1011.4
20260505100508 64 0 0.0 0.0 0.00 0.00 0.00 95 1011.4
20260505100408 64 0 0.0 0.0 0.00 0.00 0.00 95 1011.4
20260505100330 64 0 0.0 0.0 0.00 0.00 0.00 95 1011.4
20260505100208 64 0 0.0 0.0 0.00 0.00 0.00 95 1011.5
20260505100108 64 0 0.0 0.0 0.00 0.00 0.00 95 1011.6
20260505100009 64 0 0.0 0.0 0.00 0.00 0.00 95 1011.3
20260505095908 64 0 0.0 0.0 0.00 0.00 0.00 95 1011.5
20260505095829 64 0 0.0 0.0 0.00 0.00 0.00 95 1011.5
20260505095729 64 0 0.0 0.0 0.00 0.00 0.00 95 1011.4
20260505095608 64 0 0.0 0.0 0.00 0.00 0.00 95 1011.3
20260505095508 64 0 0.0 0.0 0.00 0.00 0.00 95 1011.4
20260505095429 64 0 0.0 0.0 0.00 0.00 0.00 95 1011.4
20260505095308 64 360 0.0 2.0 0.00 0.00 0.00 95 1011.2
20260505095229 64 360 0.0 2.0 0.00 0.00 0.00 95 1011.4
20260505095129 64 360 0.0 2.0 0.00 0.00 0.00 95 1011.3
20260505095008 64 360 0.0 2.0 0.00 0.00 0.00 95 1011.2
20260505094908 64 360 0.0 2.0 0.00 0.00 0.00 95 1011.2
20260505094808 64 1 0.0 2.0 0.00 0.00 0.00 95 1011.3
20260505094729 64 4 0.0 2.0 0.00 0.00 0.00 95 1011.2
20260505094608 64 7 0.0 2.0 0.00 0.00 0.00 95 1011.2
20260505094529 64 8 0.0 2.0 0.00 0.00 0.00 95 1011.0
20260505094408 64 10 0.0 2.0 0.00 0.00 0.00 95 1011.1
20260505094308 64 9 1.0 2.0 0.00 0.00 0.00 95 1011.1
20260505094229 64 9 1.0 2.0 0.00 0.00 0.00 95 1011.1
20260505094108 64 9 2.0 2.0 0.00 0.00 0.00 95 1011.2
20260505094008 64 8 2.0 2.0 0.00 0.00 0.00 95 1011.2
20260505093908 63 9 2.0 2.0 0.00 0.00 0.00 95 1011.1
20260505093809 63 9 2.0 2.0 0.00 0.00 0.00 95 1011.3
20260505093708 63 8 2.0 2.0 0.00 0.00 0.00 95 1010.9
20260505093608 63 5 1.0 2.0 0.00 0.00 0.00 94 1011.1
20260505093508 63 1 1.0 2.0 0.00 0.00 0.00 94 1011.1
20260505093408 63 356 1.0 2.0 0.00 0.00 0.00 94 1011.1
20260505093308 64 354 1.0 2.0 0.00 0.00 0.00 94 1011.2
20260505093208 64 351 2.0 2.0 0.00 0.00 0.00 94 1011.0
20260505093108 64 337 1.0 2.0 0.00 0.00 0.00 94 1011.2
20260505093030 64 337 1.0 2.0 0.00 0.00 0.00 94 1011.2
20260505092908 64 0 0.0 0.0 0.00 0.00 0.00 94 1011.2
20260505092808 64 0 0.0 0.0 0.00 0.00 0.00 94 1011.1
20260505092708 64 0 0.0 0.0 0.00 0.00 0.00 94 1011.1
20260505092608 64 0 0.0 0.0 0.00 0.00 0.00 94 1010.9
20260505092529 64 0 0.0 0.0 0.00 0.00 0.00 94 1010.8
20260505092408 64 0 0.0 0.0 0.00 0.00 0.00 94 1011.0
20260505092308 64 0 0.0 0.0 0.00 0.00 0.00 94 1011.1
20260505092208 64 0 0.0 0.0 0.00 0.00 0.00 94 1010.9
20260505092108 64 0 0.0 0.0 0.00 0.00 0.00 94 1011.0
20260505092008 64 337 0.0 2.0 0.00 0.00 0.00 94 1011.1
20260505091908 64 337 0.0 2.0 0.00 0.00 0.00 94 1011.0
20260505091808 64 337 0.0 2.0 0.00 0.00 0.00 94 1011.0
20260505091708 64 337 0.0 2.0 0.00 0.00 0.00 94 1011.0
20260505091629 64 337 0.0 2.0 0.00 0.00 0.00 94 1010.9
20260505091508 64 337 0.0 2.0 0.00 0.00 0.00 94 1010.9
20260505091408 64 337 0.0 2.0 0.00 0.00 0.00 94 1010.9
20260505091308 64 337 0.0 2.0 0.00 0.00 0.00 94 1010.8
20260505091230 64 337 0.0 2.0 0.00 0.00 0.00 94 1010.8
20260505091108 64 337 1.0 2.0 0.00 0.00 0.00 94 1011.0
20260505091008 64 337 0.0 2.0 0.00 0.00 0.00 94 1010.8
20260505090908 64 337 0.0 2.0 0.00 0.00 0.00 94 1011.0
20260505090808 64 337 0.0 2.0 0.00 0.00 0.00 94 1010.9
20260505090708 64 337 1.0 2.0 0.00 0.00 0.00 94 1010.8
20260505090608 64 337 1.0 2.0 0.00 0.00 0.00 94 1010.8
20260505090508 64 337 1.0 2.0 0.00 0.00 0.00 94 1010.9
20260505090408 64 337 1.0 2.0 0.00 0.00 0.00 94 1010.8
20260505090308 64 337 0.0 2.0 0.00 0.00 0.00 94 1010.8
20260505090208 64 337 0.0 2.0 0.00 0.00 0.00 94 1010.9
20260505090108 64 337 0.0 2.0 0.00 0.00 0.00 94 1010.9
20260505090009 64 341 0.0 2.0 0.00 0.00 0.00 94 1010.9
20260505085908 64 346 2.0 2.0 0.00 0.00 0.00 94 1010.9
20260505085830 64 349 2.0 2.0 0.00 0.00 0.00 94 1010.9
20260505085708 64 357 1.0 2.0 0.00 0.00 0.00 94 1010.9
20260505085608 64 5 0.0 2.0 0.00 0.00 0.00 94 1010.8
20260505085508 64 10 0.0 4.0 0.00 0.00 0.00 94 1011.1
20260505085408 64 12 0.0 4.0 0.00 0.00 0.00 94 1010.7
20260505085308 64 13 0.0 4.0 0.00 0.00 0.00 94 1010.7
20260505085208 64 14 0.0 4.0 0.00 0.00 0.00 94 1010.8
20260505085108 64 16 1.0 4.0 0.00 0.00 0.00 94 1010.7
20260505085008 64 15 1.0 4.0 0.00 0.00 0.00 94 1010.7
20260505084908 64 16 1.0 4.0 0.00 0.00 0.00 94 1010.8
20260505084808 64 17 1.0 4.0 0.00 0.00 0.00 94 1010.7
20260505084708 64 16 2.0 4.0 0.00 0.00 0.00 94 1010.5
20260505084608 64 14 2.0 4.0 0.00 0.00 0.00 94 1010.6
20260505084508 64 12 2.0 4.0 0.00 0.00 0.00 94 1010.5
20260505084408 64 12 2.0 4.0 0.00 0.00 0.00 94 1010.4
20260505084308 64 12 2.0 4.0 0.00 0.00 0.00 94 1010.4
20260505084208 64 14 2.0 4.0 0.00 0.00 0.00 94 1010.3
20260505084108 64 14 2.0 4.0 0.00 0.00 0.00 94 1010.6
20260505084008 64 15 2.0 4.0 0.00 0.00 0.00 94 1010.6
20260505083908 64 15 2.0 4.0 0.00 0.00 0.00 94 1010.7
20260505083808 64 13 2.0 4.0 0.00 0.00 0.00 94 1010.5
20260505083708 64 15 3.0 4.0 0.00 0.00 0.00 94 1010.7
20260505083608 64 16 3.0 4.0 0.00 0.00 0.00 94 1010.5
20260505083508 64 18 2.0 4.0 0.00 0.00 0.00 94 1010.5
20260505083408 64 18 3.0 4.0 0.00 0.00 0.00 94 1010.5
20260505083308 64 18 2.0 4.0 0.00 0.00 0.00 94 1010.4
20260505083208 64 16 2.0 4.0 0.00 0.00 0.00 94 1010.4
20260505083108 64 14 3.0 4.0 0.00 0.00 0.00 94 1010.5
20260505083009 64 14 3.0 4.0 0.00 0.00 0.00 94 1010.6
20260505082908 64 14 2.0 4.0 0.00 0.00 0.00 94 1010.6
20260505082808 64 18 2.0 4.0 0.00 0.00 0.00 94 1010.7
20260505082708 64 18 2.0 4.0 0.00 0.00 0.00 93 1010.6
20260505082629 64 20 2.0 4.0 0.00 0.00 0.00 93 1010.6
20260505082508 64 21 2.0 4.0 0.00 0.00 0.00 93 1010.4
20260505082408 64 21 2.0 4.0 0.00 0.00 0.00 93 1010.6
20260505082308 64 21 2.0 4.0 0.00 0.00 0.00 93 1010.4
20260505082208 64 20 2.0 4.0 0.00 0.00 0.00 93 1010.5
20260505082108 64 19 2.0 4.0 0.00 0.00 0.00 93 1010.6
20260505082008 64 17 2.0 4.0 0.00 0.00 0.00 93 1010.5
20260505081908 64 16 2.0 4.0 0.00 0.00 0.00 93 1010.5
20260505081808 64 14 2.0 4.0 0.00 0.00 0.00 93 1010.5
20260505081708 64 14 2.0 4.0 0.00 0.00 0.00 93 1010.5
20260505081608 64 14 2.0 4.0 0.00 0.00 0.00 93 1010.5
20260505081529 64 12 2.0 4.0 0.00 0.00 0.00 93 1010.7
20260505081408 64 11 2.0 4.0 0.00 0.00 0.00 93 1010.6
20260505081308 64 9 2.0 4.0 0.00 0.00 0.00 93 1010.7
20260505081208 64 8 2.0 4.0 0.00 0.00 0.00 93 1010.8
20260505081129 64 7 2.0 4.0 0.00 0.00 0.00 93 1010.7
20260505081008 64 4 2.0 4.0 0.00 0.00 0.00 93 1010.8
20260505080908 64 4 2.0 4.0 0.00 0.00 0.00 93 1010.8
20260505080808 64 5 1.0 4.0 0.00 0.00 0.00 93 1010.7
20260505080730 64 8 2.0 4.0 0.00 0.00 0.00 93 1010.6
20260505080629 64 8 2.0 4.0 0.00 0.00 0.00 93 1010.7
20260505080508 64 8 2.0 2.0 0.00 0.00 0.00 93 1010.8
20260505080408 64 8 1.0 2.0 0.00 0.00 0.00 93 1010.8
20260505080329 64 8 1.0 2.0 0.00 0.00 0.00 93 1010.8
20260505080208 64 10 2.0 2.0 0.00 0.00 0.00 93 1010.9
20260505080108 64 17 1.0 2.0 0.00 0.00 0.00 93 1010.7
20260505080030 64 27 2.0 2.0 0.00 0.00 0.00 93 1010.6
20260505075908 64 41 2.0 2.0 0.00 0.00 0.00 93 1010.5
20260505075808 64 45 2.0 2.0 0.00 0.00 0.00 93 1010.6
20260505075708 64 45 1.0 2.0 0.00 0.00 0.00 93 1010.5
20260505075608 64 45 0.0 2.0 0.00 0.00 0.00 93 1010.6
20260505075508 64 45 0.0 2.0 0.00 0.00 0.00 93 1010.5
20260505075408 64 45 0.0 2.0 0.00 0.00 0.00 93 1010.7
20260505075308 64 45 0.0 2.0 0.00 0.00 0.00 93 1010.7
20260505075208 64 45 0.0 2.0 0.00 0.00 0.00 92 1010.6
20260505075108 64 45 1.0 2.0 0.00 0.00 0.00 92 1010.6
20260505075008 64 45 0.0 2.0 0.00 0.00 0.00 92 1010.6
20260505074908 64 42 0.0 2.0 0.00 0.00 0.00 92 1010.6
20260505074808 64 41 0.0 2.0 0.00 0.00 0.00 92 1010.4
20260505074708 64 40 0.0 2.0 0.00 0.00 0.00 92 1010.7
20260505074608 64 38 0.0 2.0 0.00 0.00 0.00 92 1010.6
20260505074429 64 35 0.0 2.0 0.00 0.00 0.00 92 1010.7
20260505074308 64 35 2.0 2.0 0.00 0.00 0.00 92 1010.6
20260505074208 64 35 2.0 2.0 0.00 0.00 0.00 92 1010.7
20260505074108 64 36 1.0 4.0 0.00 0.00 0.00 92 1010.7
20260505074008 64 37 2.0 4.0 0.00 0.00 0.00 92 1010.6
20260505073908 64 37 2.0 4.0 0.00 0.00 0.00 92 1010.5
20260505073808 64 35 2.0 4.0 0.00 0.00 0.00 92 1010.6
20260505073708 64 34 1.0 4.0 0.00 0.00 0.00 92 1010.6
20260505073608 64 34 2.0 4.0 0.00 0.00 0.00 92 1010.5
20260505073508 64 34 2.0 4.0 0.00 0.00 0.00 92 1010.6
20260505073408 64 33 2.0 4.0 0.00 0.00 0.00 92 1010.7
20260505073308 64 32 2.0 4.0 0.00 0.00 0.00 92 1010.7
20260505073208 64 30 2.0 4.0 0.00 0.00 0.00 92 1010.7
20260505073108 64 28 2.0 4.0 0.00 0.00 0.00 92 1010.6
20260505073009 64 25 2.0 4.0 0.00 0.00 0.00 92 1010.5
20260505072908 64 24 2.0 4.0 0.00 0.00 0.00 92 1010.6
20260505072808 64 24 2.0 4.0 0.00 0.00 0.00 92 1010.8
20260505072708 64 24 3.0 4.0 0.00 0.00 0.00 92 1010.7
20260505072608 64 22 2.0 4.0 0.00 0.00 0.00 92 1010.6
20260505072508 64 22 2.0 4.0 0.00 0.00 0.00 92 1010.7
20260505072408 64 21 2.0 4.0 0.00 0.00 0.00 92 1010.5
20260505072329 64 20 2.0 4.0 0.00 0.00 0.00 92 1010.9
20260505072208 64 17 2.0 4.0 0.00 0.00 0.00 92 1010.8
20260505072108 64 16 2.0 4.0 0.00 0.00 0.00 92 1010.9
20260505072008 64 13 2.0 4.0 0.00 0.00 0.00 92 1010.8
20260505071929 64 11 2.0 4.0 0.00 0.00 0.00 92 1010.8
20260505071808 64 7 2.0 4.0 0.00 0.00 0.00 92 1010.9
20260505071708 64 3 2.0 4.0 0.00 0.00 0.00 92 1010.7
20260505071608 64 357 2.0 4.0 0.00 0.00 0.00 92 1010.7
20260505071508 64 352 2.0 4.0 0.00 0.00 0.00 92 1010.9
20260505071430 64 350 2.0 4.0 0.00 0.00 0.00 92 1011.0
20260505071308 64 349 2.0 4.0 0.00 0.00 0.00 92 1010.9
20260505071229 64 347 2.0 4.0 0.00 0.00 0.00 92 1010.8
20260505071108 64 346 2.0 4.0 0.00 0.00 0.00 91 1010.9
20260505071008 64 346 2.0 4.0 0.00 0.00 0.00 91 1010.9
20260505070908 64 345 2.0 4.0 0.00 0.00 0.00 91 1010.8
20260505070808 64 343 2.0 4.0 0.00 0.00 0.00 91 1010.8
20260505070708 64 343 2.0 4.0 0.00 0.00 0.00 91 1011.0
20260505070629 64 343 2.0 4.0 0.00 0.00 0.00 91 1011.0
20260505070508 64 347 2.0 4.0 0.00 0.00 0.00 91 1010.9
20260505070408 64 348 2.0 6.0 0.00 0.00 0.00 91 1010.7
20260505070308 64 347 2.0 6.0 0.00 0.00 0.00 91 1010.9
20260505070208 64 350 2.0 6.0 0.00 0.00 0.00 91 1010.9
20260505070108 64 351 3.0 6.0 0.00 0.00 0.00 91 1010.9
20260505070030 64 350 3.0 6.0 0.00 0.00 0.00 91 1011.0
20260505065908 64 350 2.0 6.0 0.00 0.00 0.00 91 1010.8
20260505065829 64 350 2.0 6.0 0.00 0.00 0.00 91 1010.8
20260505065729 64 352 2.0 6.0 0.00 0.00 0.00 91 1010.9
20260505065608 64 355 2.0 6.0 0.00 0.00 0.00 91 1010.8
20260505065508 64 355 3.0 6.0 0.00 0.00 0.00 91 1010.9
20260505065408 64 355 3.0 6.0 0.00 0.00 0.00 91 1010.9
20260505065308 64 355 3.0 6.0 0.00 0.00 0.00 91 1010.8
20260505065208 64 353 2.0 6.0 0.00 0.00 0.00 91 1010.8
20260505065129 64 352 2.0 6.0 0.00 0.00 0.00 91 1010.8
20260505065008 64 356 2.0 6.0 0.00 0.00 0.00 91 1010.9
20260505064908 64 354 2.0 6.0 0.00 0.00 0.00 91 1011.0
20260505064829 64 354 2.0 6.0 0.00 0.00 0.00 91 1010.8
20260505064708 64 354 2.0 6.0 0.00 0.00 0.00 91 1010.9
20260505064608 64 354 3.0 7.0 0.00 0.00 0.00 91 1010.9
20260505064529 64 352 3.0 7.0 0.00 0.00 0.00 91 1010.9
20260505064408 64 353 3.0 7.0 0.00 0.00 0.00 91 1010.9
20260505064308 64 354 2.0 7.0 0.00 0.00 0.00 90 1010.9
20260505064208 64 356 3.0 7.0 0.00 0.00 0.00 90 1010.9
20260505064129 64 355 3.0 7.0 0.00 0.00 0.00 90 1010.8
20260505064008 64 352 3.0 7.0 0.00 0.00 0.00 90 1010.9
20260505063908 64 352 4.0 7.0 0.00 0.00 0.00 90 1010.9
20260505063808 64 353 4.0 7.0 0.00 0.00 0.00 90 1010.7
20260505063708 64 353 3.0 7.0 0.00 0.00 0.00 90 1010.7
20260505063608 64 353 4.0 7.0 0.00 0.00 0.00 90 1010.8
20260505063508 64 350 3.0 7.0 0.00 0.00 0.00 90 1010.7
20260505063408 64 349 4.0 7.0 0.00 0.00 0.00 90 1010.8
20260505063308 64 348 4.0 7.0 0.00 0.00 0.00 90 1010.6
20260505063208 64 346 2.0 6.0 0.00 0.00 0.00 90 1010.9
20260505063108 64 345 2.0 6.0 0.00 0.00 0.00 90 1010.5
20260505063030 64 345 2.0 6.0 0.00 0.00 0.00 90 1010.5
20260505062929 64 345 3.0 6.0 0.00 0.00 0.00 90 1010.7
20260505062808 64 342 4.0 6.0 0.00 0.00 0.00 90 1010.7
20260505062708 64 341 4.0 6.0 0.00 0.00 0.00 90 1010.8
20260505062608 64 339 4.0 6.0 0.00 0.00 0.00 90 1010.8
20260505062508 64 342 3.0 6.0 0.00 0.00 0.00 90 1010.7
20260505062408 64 344 3.0 6.0 0.00 0.00 0.00 90 1010.6
20260505062308 64 344 3.0 6.0 0.00 0.00 0.00 90 1010.7
20260505062208 64 342 3.0 6.0 0.00 0.00 0.00 90 1010.7
20260505062108 64 343 3.0 6.0 0.00 0.00 0.00 90 1010.7
20260505062008 64 343 3.0 6.0 0.00 0.00 0.00 90 1010.9
20260505061929 64 345 3.0 6.0 0.00 0.00 0.00 90 1010.8
20260505061808 64 346 3.0 6.0 0.00 0.00 0.00 89 1010.6
20260505061708 64 346 3.0 6.0 0.00 0.00 0.00 89 1010.7
20260505061608 64 346 2.0 6.0 0.00 0.00 0.00 89 1010.8
20260505061508 64 341 2.0 6.0 0.00 0.00 0.00 89 1010.8
20260505061408 64 339 2.0 6.0 0.00 0.00 0.00 89 1010.8
20260505061329 64 341 2.0 6.0 0.00 0.00 0.00 89 1010.7
20260505061208 64 344 2.0 6.0 0.00 0.00 0.00 89 1011.0
20260505061108 64 347 3.0 6.0 0.00 0.00 0.00 89 1010.8
20260505061029 64 348 3.0 7.0 0.00 0.00 0.00 89 1010.8
20260505060908 64 345 2.0 7.0 0.00 0.00 0.00 89 1010.7
20260505060808 64 347 3.0 7.0 0.00 0.00 0.00 89 1010.9
20260505060708 64 348 2.0 7.0 0.00 0.00 0.00 89 1010.9
20260505060608 64 348 2.0 7.0 0.00 0.00 0.00 89 1010.8
20260505060508 64 348 3.0 8.0 0.00 0.00 0.00 89 1010.9
20260505060408 64 348 4.0 8.0 0.00 0.00 0.00 89 1010.7
20260505060308 64 344 2.0 8.0 0.00 0.00 0.00 89 1011.0
20260505060208 64 343 4.0 8.0 0.00 0.00 0.00 89 1010.9
20260505060108 64 343 4.0 8.0 0.00 0.00 0.00 89 1010.9
20260505060009 64 342 4.0 8.0 0.00 0.00 0.00 89 1011.0
20260505055929 64 343 4.0 8.0 0.00 0.00 0.00 89 1010.9
20260505055808 64 341 3.0 8.0 0.00 0.00 0.00 89 1010.8
20260505055708 64 342 4.0 8.0 0.00 0.00 0.00 89 1010.9
20260505055608 64 343 3.0 8.0 0.00 0.00 0.00 89 1010.9
20260505055508 64 344 3.0 8.0 0.00 0.00 0.00 88 1010.9
20260505055408 64 344 4.0 8.0 0.00 0.00 0.00 88 1011.1
20260505055329 64 346 4.0 7.0 0.00 0.00 0.00 88 1011.0
20260505055208 63 352 4.0 7.0 0.00 0.00 0.00 88 1011.1
20260505055108 63 352 2.0 6.0 0.00 0.00 0.00 88 1010.9
20260505055008 63 353 3.0 6.0 0.00 0.00 0.00 88 1010.9
20260505054908 63 352 2.0 6.0 0.00 0.00 0.00 88 1011.0
20260505054808 64 354 3.0 6.0 0.00 0.00 0.00 88 1011.0
20260505054708 64 354 4.0 6.0 0.00 0.00 0.00 88 1011.1
20260505054629 64 353 4.0 6.0 0.00 0.00 0.00 88 1011.1
20260505054508 63 356 3.0 4.0 0.00 0.00 0.00 88 1010.8
20260505054408 63 357 3.0 4.0 0.00 0.00 0.00 88 1010.8
20260505054308 63 354 3.0 4.0 0.00 0.00 0.00 88 1010.8
20260505054208 63 354 3.0 6.0 0.00 0.00 0.00 88 1010.8
20260505054108 63 354 2.0 6.0 0.00 0.00 0.00 88 1010.8
20260505054008 63 354 2.0 6.0 0.00 0.00 0.00 88 1010.7
20260505053908 63 356 2.0 6.0 0.00 0.00 0.00 87 1010.8
20260505053808 63 356 2.0 6.0 0.00 0.00 0.00 87 1010.8
20260505053729 63 358 3.0 6.0 0.00 0.00 0.00 87 1010.8
20260505053608 64 2 2.0 6.0 0.00 0.00 0.00 87 1010.8
20260505053529 64 3 3.0 6.0 0.00 0.00 0.00 87 1010.8
20260505053408 64 6 3.0 6.0 0.00 0.00 0.00 87 1010.8
20260505053308 64 11 2.0 6.0 0.00 0.00 0.00 87 1010.8
20260505053208 64 16 4.0 6.0 0.00 0.00 0.00 87 1010.9
20260505053108 63 19 2.0 6.0 0.00 0.00 0.00 87 1010.9
20260505053008 63 21 2.0 6.0 0.00 0.00 0.00 87 1011.0
20260505052908 63 23 2.0 6.0 0.00 0.00 0.00 87 1010.9
20260505052808 63 24 2.0 6.0 0.00 0.00 0.00 87 1010.8
20260505052708 63 26 2.0 6.0 0.00 0.00 0.00 87 1010.8
20260505052608 63 26 3.0 6.0 0.00 0.00 0.00 87 1010.8
20260505052508 63 26 2.0 4.0 0.00 0.00 0.00 87 1010.8
20260505052429 63 26 3.0 4.0 0.00 0.00 0.00 86 1010.7
20260505052308 63 24 3.0 4.0 0.00 0.00 0.00 86 1010.8
20260505052229 63 24 3.0 4.0 0.00 0.00 0.00 86 1010.8
20260505052108 63 22 2.0 4.0 0.00 0.00 0.00 86 1011.0
20260505052008 63 22 2.0 4.0 0.00 0.00 0.00 86 1011.0
20260505051908 63 23 2.0 4.0 0.00 0.00 0.00 86 1010.9
20260505051808 63 23 2.0 4.0 0.00 0.00 0.00 86 1010.7
20260505051708 63 22 2.0 4.0 0.00 0.00 0.00 86 1011.1
20260505051629 63 21 2.0 4.0 0.00 0.00 0.00 86 1011.2
20260505051529 63 19 2.0 4.0 0.00 0.00 0.00 86 1011.0
20260505051429 63 18 2.0 4.0 0.00 0.00 0.00 85 1011.0
20260505051329 63 17 2.0 6.0 0.00 0.00 0.00 85 1011.0
20260505051230 63 16 2.0 6.0 0.00 0.00 0.00 85 1011.0
20260505051108 63 15 2.0 6.0 0.00 0.00 0.00 85 1011.1
20260505051008 63 15 3.0 6.0 0.00 0.00 0.00 85 1011.0
20260505050908 63 15 2.0 6.0 0.00 0.00 0.00 85 1011.0
20260505050808 63 14 3.0 6.0 0.00 0.00 0.00 85 1010.9
20260505050708 63 13 2.0 6.0 0.00 0.00 0.00 85 1010.8
20260505050608 63 14 3.0 6.0 0.00 0.00 0.00 85 1011.1
20260505050508 63 14 2.0 6.0 0.00 0.00 0.00 85 1011.0
20260505050408 63 14 4.0 6.0 0.00 0.00 0.00 85 1011.1
20260505050308 63 13 2.0 6.0 0.00 0.00 0.00 85 1011.1
20260505050208 63 15 2.0 6.0 0.00 0.00 0.00 85 1011.0
20260505050108 63 14 3.0 6.0 0.00 0.00 0.00 84 1011.1
20260505041708 63 7 3.0 7.0 0.00 0.00 0.00 81 1011.2
20260505041608 63 8 2.0 7.0 0.00 0.00 0.00 81 1011.4
20260505041508 63 9 2.0 7.0 0.00 0.00 0.00 80 1011.4
20260505041408 63 9 3.0 7.0 0.00 0.00 0.00 80 1011.3
20260505041308 63 11 3.0 7.0 0.00 0.00 0.00 80 1011.4
20260505041208 63 11 3.0 7.0 0.00 0.00 0.00 80 1011.4
20260505041108 63 7 3.0 6.0 0.00 0.00 0.00 80 1011.3
20260505041008 63 9 3.0 6.0 0.00 0.00 0.00 80 1011.3
20260505040908 63 8 4.0 6.0 0.00 0.00 0.00 80 1011.2
20260505040808 64 5 2.0 4.0 0.00 0.00 0.00 80 1011.3
20260505040708 64 8 3.0 4.0 0.00 0.00 0.00 80 1011.4
20260505040608 64 11 3.0 6.0 0.00 0.00 0.00 80 1011.3
20260505040508 64 11 3.0 6.0 0.00 0.00 0.00 80 1011.3
20260505040408 64 11 3.0 7.0 0.00 0.00 0.00 80 1011.3
20260505040308 64 10 3.0 7.0 0.00 0.00 0.00 79 1011.4
20260505040208 64 11 3.0 7.0 0.00 0.00 0.00 79 1011.3
20260505040108 64 10 2.0 7.0 0.00 0.00 0.00 79 1011.2
20260505040009 64 10 2.0 8.0 0.00 0.00 0.00 79 1011.4
20260505035908 64 9 2.0 8.0 0.00 0.00 0.00 79 1011.3
20260505035808 64 10 3.0 8.0 0.00 0.00 0.00 78 1011.2
20260505035708 64 11 3.0 8.0 0.00 0.00 0.00 78 1011.2
20260505035629 64 11 4.0 8.0 0.00 0.00 0.00 78 1011.1
20260505035508 64 12 3.0 8.0 0.00 0.00 0.00 78 1011.2
20260505035429 64 13 3.0 8.0 0.00 0.00 0.00 78 1011.2
20260505035308 64 16 3.0 9.0 0.00 0.00 0.00 78 1011.2
20260505035208 64 18 3.0 9.0 0.00 0.00 0.00 78 1011.2
20260505035108 64 17 4.0 9.0 0.00 0.00 0.00 78 1011.4
20260505035008 64 20 4.0 9.0 0.00 0.00 0.00 78 1011.1
20260505034929 64 21 4.0 9.0 0.00 0.00 0.00 78 1011.1
20260505034808 64 23 4.0 9.0 0.00 0.00 0.00 78 1011.1
20260505034708 64 23 3.0 9.0 0.00 0.00 0.00 78 1011.0
20260505034608 64 23 4.0 9.0 0.00 0.00 0.00 78 1011.1
20260505034508 64 20 5.0 9.0 0.00 0.00 0.00 78 1011.0
20260505034408 64 18 4.0 9.0 0.00 0.00 0.00 78 1011.0
20260505034308 64 16 4.0 9.0 0.00 0.00 0.00 78 1010.9
20260505034229 64 14 4.0 9.0 0.00 0.00 0.00 78 1010.9
20260505034108 64 16 4.0 9.0 0.00 0.00 0.00 78 1010.9
20260505034008 64 16 5.0 9.0 0.00 0.00 0.00 78 1011.1
20260505033908 64 14 4.0 9.0 0.00 0.00 0.00 78 1011.1
20260505033808 64 14 3.0 9.0 0.00 0.00 0.00 78 1011.0
20260505033708 64 14 5.0 9.0 0.00 0.00 0.00 78 1011.0
20260505033608 64 13 5.0 8.0 0.00 0.00 0.00 78 1011.0
20260505033508 64 14 4.0 9.0 0.00 0.00 0.00 77 1011.0
20260505033408 64 13 4.0 9.0 0.00 0.00 0.00 77 1011.0
20260505033308 64 17 4.0 9.0 0.00 0.00 0.00 77 1011.0
20260505033208 64 17 3.0 9.0 0.00 0.00 0.00 77 1011.2
20260505033108 64 16 4.0 9.0 0.00 0.00 0.00 77 1011.1
20260505033008 64 17 4.0 9.0 0.00 0.00 0.00 77 1011.1
20260505032908 64 18 4.0 9.0 0.00 0.00 0.00 77 1011.2
20260505032808 64 18 4.0 9.0 0.00 0.00 0.00 77 1011.1
20260505032708 64 18 3.0 9.0 0.00 0.00 0.00 77 1011.0
20260505032608 64 20 4.0 9.0 0.00 0.00 0.00 78 1011.0
20260505032508 64 18 4.0 9.0 0.00 0.00 0.00 78 1011.1
20260505032408 64 18 4.0 9.0 0.00 0.00 0.00 78 1011.2
20260505032329 64 16 4.0 9.0 0.00 0.00 0.00 78 1011.1
20260505032229 64 15 5.0 9.0 0.00 0.00 0.00 78 1011.4
20260505032108 63 16 3.0 9.0 0.00 0.00 0.00 78 1011.0
20260505032029 63 14 4.0 9.0 0.00 0.00 0.00 78 1011.0
20260505031908 63 11 4.0 9.0 0.00 0.00 0.00 78 1011.1
20260505031829 63 9 4.0 9.0 0.00 0.00 0.00 78 1011.1
20260505031708 63 10 4.0 9.0 0.00 0.00 0.00 78 1011.3
20260505031608 63 9 4.0 9.0 0.00 0.00 0.00 78 1011.0
20260505031508 63 11 4.0 9.0 0.00 0.00 0.00 78 1011.2
20260505031408 63 14 3.0 8.0 0.00 0.00 0.00 78 1011.0
20260505031308 63 14 4.0 8.0 0.00 0.00 0.00 78 1011.0
20260505031208 63 13 3.0 8.0 0.00 0.00 0.00 78 1011.2
20260505031129 63 11 3.0 8.0 0.00 0.00 0.00 78 1011.1
20260505031008 63 12 3.0 8.0 0.00 0.00 0.00 78 1010.9
20260505030908 63 13 4.0 8.0 0.00 0.00 0.00 78 1011.0
20260505030808 63 14 4.0 8.0 0.00 0.00 0.00 78 1011.0
20260505030708 63 11 3.0 7.0 0.00 0.00 0.00 78 1011.1
20260505030629 63 10 3.0 7.0 0.00 0.00 0.00 78 1011.1
20260505030508 63 8 2.0 7.0 0.00 0.00 0.00 78 1011.0
20260505030408 63 3 3.0 7.0 0.00 0.00 0.00 78 1011.0
20260505030308 63 1 4.0 7.0 0.00 0.00 0.00 78 1010.8
20260505030208 63 1 4.0 7.0 0.00 0.00 0.00 78 1010.9
20260505030108 63 2 4.0 7.0 0.00 0.00 0.00 78 1010.9
20260505030009 63 360 4.0 6.0 0.00 0.00 0.00 78 1010.9
20260505025908 63 357 3.0 6.0 0.00 0.00 0.00 78 1011.0
20260505025808 63 358 4.0 6.0 0.00 0.00 0.00 78 1011.1
20260505025708 63 358 4.0 7.0 0.00 0.00 0.00 78 1011.0
20260505025608 63 2 4.0 7.0 0.00 0.00 0.00 78 1010.8
20260505025508 63 1 3.0 7.0 0.00 0.00 0.00 78 1011.1
20260505025408 63 3 4.0 7.0 0.00 0.00 0.00 78 1011.0
20260505025329 63 5 4.0 7.0 0.00 0.00 0.00 78 1011.0
20260505025208 63 7 4.0 8.0 0.00 0.00 0.00 78 1011.0
20260505025108 63 8 4.0 8.0 0.00 0.00 0.00 78 1010.9
20260505025008 63 10 3.0 8.0 0.00 0.00 0.00 78 1010.8
20260505024908 63 10 4.0 8.0 0.00 0.00 0.00 78 1010.9
20260505024808 63 11 4.0 8.0 0.00 0.00 0.00 78 1010.8
20260505024708 63 11 4.0 8.0 0.00 0.00 0.00 78 1010.8
20260505024608 63 8 3.0 8.0 0.00 0.00 0.00 78 1010.9
20260505024508 63 7 3.0 8.0 0.00 0.00 0.00 78 1010.8
20260505024408 63 9 4.0 8.0 0.00 0.00 0.00 78 1010.8
20260505024308 63 7 4.0 8.0 0.00 0.00 0.00 78 1010.7
20260505024208 63 10 4.0 8.0 0.00 0.00 0.00 78 1010.7
20260505024108 63 11 3.0 7.0 0.00 0.00 0.00 79 1010.8
20260505024008 63 9 4.0 8.0 0.00 0.00 0.00 79 1010.8
20260505023908 63 10 4.0 8.0 0.00 0.00 0.00 79 1010.8
20260505023808 63 13 4.0 8.0 0.00 0.00 0.00 79 1010.8
20260505023709 63 14 4.0 8.0 0.00 0.00 0.00 79 1010.7
20260505023608 63 16 4.0 8.0 0.00 0.00 0.00 79 1010.9
20260505023508 63 17 4.0 8.0 0.00 0.00 0.00 78 1010.7
20260505023408 63 16 3.0 8.0 0.00 0.00 0.00 78 1010.8
20260505023308 63 17 4.0 8.0 0.00 0.00 0.00 78 1010.9
20260505023208 63 17 4.0 8.0 0.00 0.00 0.00 78 1010.8
20260505023108 63 16 5.0 8.0 0.00 0.00 0.00 78 1010.9
20260505023008 63 17 4.0 7.0 0.00 0.00 0.00 78 1010.9
20260505022908 63 15 4.0 7.0 0.00 0.00 0.00 78 1010.7
20260505022808 63 13 3.0 6.0 0.00 0.00 0.00 78 1010.9
20260505022708 63 12 3.0 6.0 0.00 0.00 0.00 78 1010.7
20260505022608 63 12 4.0 6.0 0.00 0.00 0.00 78 1010.9
20260505022508 63 11 3.0 6.0 0.00 0.00 0.00 78 1010.7
20260505022408 63 11 2.0 6.0 0.00 0.00 0.00 78 1010.8
20260505022308 63 10 4.0 6.0 0.00 0.00 0.00 78 1010.7
20260505022229 63 8 4.0 6.0 0.00 0.00 0.00 78 1010.7
20260505022129 63 9 3.0 6.0 0.00 0.00 0.00 78 1010.6
20260505022008 63 11 3.0 7.0 0.00 0.00 0.00 78 1010.6
20260505021908 63 13 3.0 7.0 0.00 0.00 0.00 78 1010.6
20260505021808 63 12 3.0 7.0 0.00 0.00 0.00 78 1010.6
20260505021708 62 13 3.0 7.0 0.00 0.00 0.00 78 1010.7
20260505021608 62 10 3.0 7.0 0.00 0.00 0.00 78 1010.5
20260505021508 62 10 2.0 7.0 0.00 0.00 0.00 78 1010.7
20260505021408 62 10 3.0 7.0 0.00 0.00 0.00 78 1010.7
20260505021308 62 9 3.0 7.0 0.00 0.00 0.00 78 1010.5
20260505021229 62 10 3.0 7.0 0.00 0.00 0.00 78 1010.6
20260505021108 62 11 4.0 7.0 0.00 0.00 0.00 78 1010.6
20260505021008 62 11 4.0 6.0 0.00 0.00 0.00 78 1010.6
20260505020908 62 9 3.0 7.0 0.00 0.00 0.00 78 1010.6
20260505020808 62 8 3.0 7.0 0.00 0.00 0.00 78 1010.6
20260505020708 62 7 3.0 7.0 0.00 0.00 0.00 77 1010.5
20260505020608 62 9 2.0 7.0 0.00 0.00 0.00 77 1010.6
20260505020508 62 9 3.0 7.0 0.00 0.00 0.00 77 1010.6
20260505020408 63 9 3.0 7.0 0.00 0.00 0.00 77 1010.6
20260505020308 63 9 3.0 7.0 0.00 0.00 0.00 77 1010.6
20260505020208 63 8 3.0 7.0 0.00 0.00 0.00 77 1010.5
20260505020129 63 10 3.0 7.0 0.00 0.00 0.00 77 1010.5
20260505020009 63 3 3.0 7.0 0.00 0.00 0.00 77 1010.7
20260505015908 63 2 3.0 7.0 0.00 0.00 0.00 77 1010.8
20260505015808 63 1 3.0 7.0 0.00 0.00 0.00 77 1010.5
20260505015708 63 359 3.0 7.0 0.00 0.00 0.00 77 1010.6
20260505015629 63 359 3.0 7.0 0.00 0.00 0.00 77 1010.4
20260505015508 63 356 2.0 7.0 0.00 0.00 0.00 76 1010.5
20260505015408 63 355 2.0 7.0 0.00 0.00 0.00 76 1010.7
20260505015329 63 354 3.0 7.0 0.00 0.00 0.00 76 1010.5
20260505015208 63 354 3.0 7.0 0.00 0.00 0.00 76 1010.6
20260505015108 63 351 4.0 7.0 0.00 0.00 0.00 76 1010.6
20260505015008 63 351 3.0 6.0 0.00 0.00 0.00 76 1010.5
20260505014908 63 350 3.0 6.0 0.00 0.00 0.00 76 1010.5
20260505014829 63 351 2.0 6.0 0.00 0.00 0.00 76 1010.5
20260505014708 63 355 3.0 6.0 0.00 0.00 0.00 76 1010.7
20260505014608 63 358 2.0 6.0 0.00 0.00 0.00 76 1010.6
20260505014508 63 358 3.0 6.0 0.00 0.00 0.00 76 1010.5
20260505014408 63 359 2.0 6.0 0.00 0.00 0.00 76 1010.6
20260505014308 63 1 3.0 6.0 0.00 0.00 0.00 76 1010.5
20260505014208 63 360 2.0 6.0 0.00 0.00 0.00 75 1010.6
20260505014108 63 3 2.0 6.0 0.00 0.00 0.00 75 1010.6
20260505014008 63 6 2.0 6.0 0.00 0.00 0.00 75 1010.6
20260505013908 63 9 3.0 6.0 0.00 0.00 0.00 75 1010.5
20260505013808 63 11 3.0 6.0 0.00 0.00 0.00 75 1010.6
20260505013708 63 12 4.0 8.0 0.00 0.00 0.00 75 1010.5
20260505013608 63 12 3.0 8.0 0.00 0.00 0.00 75 1010.6
20260505013508 63 11 2.0 8.0 0.00 0.00 0.00 75 1010.6
20260505013429 63 13 2.0 8.0 0.00 0.00 0.00 75 1010.6
20260505013308 64 14 2.0 8.0 0.00 0.00 0.00 75 1010.6
20260505013208 64 17 2.0 8.0 0.00 0.00 0.00 75 1010.5
20260505013108 64 16 3.0 8.0 0.00 0.00 0.00 76 1010.5
20260505013008 64 14 2.0 8.0 0.00 0.00 0.00 76 1010.5
20260505012908 64 15 3.0 8.0 0.00 0.00 0.00 76 1010.3
20260505012808 63 14 3.0 8.0 0.00 0.00 0.00 76 1010.5
20260505012708 63 14 4.0 7.0 0.00 0.00 0.00 77 1010.5
20260505012607 63 15 4.0 7.0 0.00 0.00 0.00 77 1010.6
20260505012508 63 21 3.0 6.0 0.00 0.00 0.00 77 1010.5
20260505012408 63 19 3.0 6.0 0.00 0.00 0.00 78 1010.3
20260505012308 63 21 2.0 6.0 0.00 0.00 0.00 78 1010.5
20260505012208 63 21 2.0 6.0 0.00 0.00 0.00 78 1010.6
20260505012108 62 20 2.0 6.0 0.00 0.00 0.00 78 1010.5
20260505012008 62 22 2.0 6.0 0.00 0.00 0.00 79 1010.5
20260505011908 62 24 2.0 6.0 0.00 0.00 0.00 79 1010.4
20260505011808 62 25 2.0 6.0 0.00 0.00 0.00 79 1010.4
20260505011729 62 24 3.0 6.0 0.00 0.00 0.00 79 1010.5
20260505011629 62 25 3.0 6.0 0.00 0.00 0.00 79 1010.6
20260505011508 62 27 3.0 4.0 0.00 0.00 0.00 80 1010.4
20260505011408 62 28 3.0 6.0 0.00 0.00 0.00 80 1010.4
20260505011308 62 30 3.0 6.0 0.00 0.00 0.00 80 1010.5
20260505011208 62 31 2.0 6.0 0.00 0.00 0.00 80 1010.4
20260505011108 62 32 2.0 6.0 0.00 0.00 0.00 80 1010.5
20260505011008 62 34 3.0 6.0 0.00 0.00 0.00 80 1010.6
20260505010908 62 33 2.0 6.0 0.00 0.00 0.00 80 1010.5
20260505010829 62 34 3.0 6.0 0.00 0.00 0.00 80 1010.6
20260505010708 62 39 3.0 6.0 0.00 0.00 0.00 81 1010.4
20260505010608 62 39 2.0 6.0 0.00 0.00 0.00 81 1010.4
20260505010508 62 36 3.0 6.0 0.00 0.00 0.00 81 1010.3
20260505010408 62 36 4.0 6.0 0.00 0.00 0.00 81 1010.5
20260505010308 62 36 3.0 6.0 0.00 0.00 0.00 81 1010.5
20260505010208 62 36 4.0 6.0 0.00 0.00 0.00 81 1010.5
20260505010108 62 38 2.0 4.0 0.00 0.00 0.00 81 1010.5
20260505010009 62 40 2.0 4.0 0.00 0.00 0.00 81 1010.5
20260505005908 62 41 2.0 4.0 0.00 0.00 0.00 81 1010.5
20260505005808 62 40 3.0 4.0 0.00 0.00 0.00 81 1010.6
20260505005729 62 40 2.0 4.0 0.00 0.00 0.00 81 1010.6
20260505005608 62 37 2.0 4.0 0.00 0.00 0.00 81 1010.6
20260505005529 62 38 2.0 4.0 0.00 0.00 0.00 81 1010.5
20260505005408 62 39 2.0 4.0 0.00 0.00 0.00 81 1010.4
20260505005308 62 40 2.0 4.0 0.00 0.00 0.00 81 1010.4
20260505005208 62 40 2.0 4.0 0.00 0.00 0.00 81 1010.4
20260505005108 62 39 2.0 4.0 0.00 0.00 0.00 81 1010.5
20260505005029 62 39 2.0 4.0 0.00 0.00 0.00 81 1010.5
20260505004908 62 39 2.0 4.0 0.00 0.00 0.00 81 1010.3
20260505004808 62 40 2.0 4.0 0.00 0.00 0.00 81 1010.3
20260505004729 62 40 2.0 4.0 0.00 0.00 0.00 80 1010.4
20260505004629 62 42 2.0 4.0 0.00 0.00 0.00 80 1010.3
20260505004529 62 45 2.0 4.0 0.00 0.00 0.00 80 1010.4
20260505004408 62 45 2.0 4.0 0.00 0.00 0.00 80 1010.3
20260505004308 62 45 0.0 2.0 0.00 0.00 0.00 80 1010.3
20260505004208 62 45 1.0 2.0 0.00 0.00 0.00 80 1010.5
20260505004108 62 45 1.0 2.0 0.00 0.00 0.00 80 1010.4
20260505004029 62 43 1.0 2.0 0.00 0.00 0.00 80 1010.4
20260505003929 62 43 1.0 2.0 0.00 0.00 0.00 80 1010.4
20260505003808 62 43 1.0 2.0 0.00 0.00 0.00 80 1010.4
20260505003708 62 43 1.0 2.0 0.00 0.00 0.00 80 1010.4
20260505003629 62 41 1.0 2.0 0.00 0.00 0.00 80 1010.3
20260505003508 62 40 1.0 2.0 0.00 0.00 0.00 80 1010.3
20260505003408 62 40 2.0 2.0 0.00 0.00 0.00 80 1010.4
20260505003308 62 40 2.0 2.0 0.00 0.00 0.00 80 1010.3
20260505003208 62 40 2.0 2.0 0.00 0.00 0.00 80 1010.4
20260505003108 62 39 2.0 2.0 0.00 0.00 0.00 79 1010.3
20260505003029 62 39 2.0 2.0 0.00 0.00 0.00 79 1010.3
20260505002908 62 40 2.0 2.0 0.00 0.00 0.00 79 1010.2
20260505002830 62 40 2.0 2.0 0.00 0.00 0.00 79 1010.3
20260505002708 62 38 1.0 2.0 0.00 0.00 0.00 79 1010.3
20260505002608 62 38 1.0 2.0 0.00 0.00 0.00 79 1010.5
20260505002529 62 39 2.0 2.0 0.00 0.00 0.00 79 1010.4
20260505002408 62 36 2.0 2.0 0.00 0.00 0.00 78 1010.6
20260505002308 62 34 1.0 2.0 0.00 0.00 0.00 78 1010.4
20260505002208 62 31 1.0 2.0 0.00 0.00 0.00 78 1010.3
20260505002108 62 30 2.0 2.0 0.00 0.00 0.00 78 1010.2
20260505002029 62 30 1.0 2.0 0.00 0.00 0.00 78 1010.4
20260505001908 62 28 1.0 4.0 0.00 0.00 0.00 78 1010.2
20260505001808 62 26 1.0 4.0 0.00 0.00 0.00 78 1010.3
20260505001708 62 26 1.0 4.0 0.00 0.00 0.00 78 1010.3
20260505001508 62 24 1.0 4.0 0.00 0.00 0.00 78 1010.3
20260505001408 62 24 1.0 4.0 0.00 0.00 0.00 78 1010.3
20260505001329 62 24 1.0 4.0 0.00 0.00 0.00 78 1010.3
20260505001208 62 27 1.0 4.0 0.00 0.00 0.00 78 1010.4
20260505001108 62 29 1.0 4.0 0.00 0.00 0.00 78 1010.2
20260505001008 62 31 1.0 4.0 0.00 0.00 0.00 78 1010.3
20260505000908 62 32 2.0 4.0 0.00 0.00 0.00 78 1010.3
20260505000808 62 35 1.0 2.0 0.00 0.00 0.00 79 1010.2
20260505000708 62 38 0.0 2.0 0.00 0.00 0.00 79 1010.3
20260505000629 62 38 0.0 2.0 0.00 0.00 0.00 79 1010.3
20260505000508 62 41 0.0 2.0 0.00 0.00 0.00 79 1010.4
20260505000408 62 43 1.0 2.0 0.00 0.00 0.00 79 1010.4
20260505000308 62 45 1.0 2.0 0.00 0.00 0.00 79 1010.1
20260505000208 62 45 1.0 2.0 0.00 0.00 0.00 79 1010.3
20260505000108 62 43 1.0 2.0 0.00 0.00 0.00 79 1010.3
20260505000008 63 40 2.0 2.0 0.00 0.00 0.00 78 1010.3
20260504235908 63 38 1.0 2.0 0.00 0.00 0.00 78 1010.2
20260504235808 63 36 2.0 2.0 0.00 0.00 0.00 78 1010.3
20260504235729 63 35 1.0 2.0 0.00 0.00 0.00 78 1010.3
20260504235608 63 34 1.0 2.0 0.00 0.00 0.00 78 1010.2
20260504235508 63 33 2.0 2.0 0.00 0.00 0.00 78 1010.3
20260504235408 63 32 1.0 2.0 0.00 0.00 0.00 78 1010.2
20260504235308 63 32 1.0 2.0 0.00 0.00 0.00 78 1010.2
20260504235229 63 32 2.0 2.0 0.00 0.00 0.00 78 1010.0
20260504235108 63 34 2.0 2.0 0.00 0.00 0.00 78 1010.2
20260504235008 63 37 2.0 2.0 0.00 0.00 0.00 78 1010.0
20260504234908 63 39 1.0 2.0 0.00 0.00 0.00 78 1010.1
20260504234808 63 41 1.0 2.0 0.00 0.00 0.00 78 1010.1
20260504234708 63 44 1.0 2.0 0.00 0.00 0.00 78 1010.2
20260504234629 63 44 1.0 2.0 0.00 0.00 0.00 78 1010.2
20260504234508 63 44 0.0 2.0 0.00 0.00 0.00 78 1010.1
20260504234408 63 45 1.0 2.0 0.00 0.00 0.00 78 1010.2
20260504234308 63 45 2.0 2.0 0.00 0.00 0.00 78 1010.1
20260504234208 63 45 2.0 2.0 0.00 0.00 0.00 77 1010.1
20260504234108 63 45 2.0 2.0 0.00 0.00 0.00 77 1010.1
20260504234008 63 45 2.0 2.0 0.00 0.00 0.00 77 1010.1
20260504233908 63 45 1.0 2.0 0.00 0.00 0.00 77 1010.0
20260504233808 63 45 1.0 2.0 0.00 0.00 0.00 77 1010.0
20260504233708 63 45 1.0 2.0 0.00 0.00 0.00 77 1010.0
20260504233608 63 45 1.0 4.0 0.00 0.00 0.00 77 1010.0
20260504233529 63 44 0.0 4.0 0.00 0.00 0.00 77 1010.1
20260504233408 63 43 1.0 4.0 0.00 0.00 0.00 77 1010.0
20260504233308 63 41 1.0 4.0 0.00 0.00 0.00 77 1010.1
20260504233208 63 42 1.0 4.0 0.00 0.00 0.00 77 1010.0
20260504233108 63 42 1.0 4.0 0.00 0.00 0.00 77 1010.1
20260504233008 63 40 1.0 4.0 0.00 0.00 0.00 77 1009.8
20260504232908 63 39 1.0 4.0 0.00 0.00 0.00 77 1009.8
20260504232808 63 37 2.0 4.0 0.00 0.00 0.00 77 1009.8
20260504232708 63 35 2.0 4.0 0.00 0.00 0.00 77 1010.0
20260504232608 63 32 1.0 4.0 0.00 0.00 0.00 77 1009.8
20260504232508 63 31 1.0 4.0 0.00 0.00 0.00 77 1009.8
20260504232408 63 30 2.0 4.0 0.00 0.00 0.00 77 1009.7
20260504232308 63 30 2.0 4.0 0.00 0.00 0.00 77 1009.8
20260504232208 63 30 2.0 4.0 0.00 0.00 0.00 77 1009.7
20260504232108 63 29 2.0 2.0 0.00 0.00 0.00 77 1009.8
20260504232008 63 30 2.0 4.0 0.00 0.00 0.00 77 1009.8
20260504231908 63 31 1.0 4.0 0.00 0.00 0.00 77 1009.8
20260504231808 64 32 1.0 4.0 0.00 0.00 0.00 77 1009.7
20260504231708 64 34 1.0 4.0 0.00 0.00 0.00 77 1009.7
20260504231608 64 33 2.0 4.0 0.00 0.00 0.00 77 1009.8
20260504231508 64 33 2.0 4.0 0.00 0.00 0.00 76 1009.7
20260504231408 64 35 2.0 4.0 0.00 0.00 0.00 76 1009.7
20260504231308 64 37 2.0 4.0 0.00 0.00 0.00 76 1009.6
20260504231208 64 36 2.0 4.0 0.00 0.00 0.00 76 1009.6
20260504231108 64 35 2.0 4.0 0.00 0.00 0.00 76 1009.5
20260504231008 64 34 3.0 4.0 0.00 0.00 0.00 76 1009.6
20260504230929 64 34 2.0 4.0 0.00 0.00 0.00 76 1009.7
20260504230808 64 33 2.0 4.0 0.00 0.00 0.00 76 1009.7
20260504230708 64 33 2.0 4.0 0.00 0.00 0.00 76 1009.5
20260504230608 64 36 2.0 4.0 0.00 0.00 0.00 76 1009.7
20260504230508 64 38 2.0 4.0 0.00 0.00 0.00 76 1009.5
20260504230408 64 37 2.0 4.0 0.00 0.00 0.00 76 1009.6
20260504230308 64 37 2.0 4.0 0.00 0.00 0.00 76 1009.6
20260504230208 64 38 2.0 4.0 0.00 0.00 0.00 76 1009.5
20260504230129 64 39 2.0 4.0 0.00 0.00 0.00 76 1009.5
20260504230008 64 38 2.0 4.0 0.00 0.00 0.00 76 1009.5
20260504225908 64 42 2.0 4.0 0.00 0.00 0.00 75 1009.5
20260504225829 64 43 2.0 4.0 0.00 0.00 0.00 75 1009.5
20260504225708 64 41 2.0 4.0 0.00 0.00 0.00 75 1009.6
20260504225608 64 41 2.0 4.0 0.00 0.00 0.00 75 1009.7
20260504225508 64 41 2.0 4.0 0.00 0.00 0.00 75 1009.6
20260504225408 64 39 2.0 4.0 0.00 0.00 0.00 74 1009.5
20260504225308 64 37 2.0 4.0 0.00 0.00 0.00 74 1009.5
20260504225208 64 36 2.0 4.0 0.00 0.00 0.00 74 1009.6
20260504225108 65 34 2.0 4.0 0.00 0.00 0.00 74 1009.4
20260504225008 65 33 2.0 4.0 0.00 0.00 0.00 74 1009.4
20260504224929 65 31 2.0 4.0 0.00 0.00 0.00 74 1009.4
20260504224808 65 28 3.0 4.0 0.00 0.00 0.00 74 1009.5
20260504224729 64 27 2.0 4.0 0.00 0.00 0.00 74 1009.4
20260504224629 64 25 2.0 4.0 0.00 0.00 0.00 74 1009.2
20260504224508 64 22 2.0 4.0 0.00 0.00 0.00 74 1009.3
20260504224408 64 22 2.0 4.0 0.00 0.00 0.00 74 1009.2
20260504224308 64 22 2.0 4.0 0.00 0.00 0.00 74 1009.5
20260504224207 64 24 2.0 4.0 0.00 0.00 0.00 74 1009.1
20260504224108 64 24 2.0 4.0 0.00 0.00 0.00 75 1009.3
20260504224007 64 24 2.0 4.0 0.00 0.00 0.00 75 1009.2
20260504223908 65 24 2.0 4.0 0.00 0.00 0.00 75 1009.2
20260504223829 65 24 2.0 4.0 0.00 0.00 0.00 75 1009.2
20260504223708 65 25 2.0 4.0 0.00 0.00 0.00 75 1009.2
20260504223608 65 25 2.0 4.0 0.00 0.00 0.00 75 1009.3
20260504223508 65 26 2.0 4.0 0.00 0.00 0.00 75 1009.2
20260504223408 65 28 2.0 4.0 0.00 0.00 0.00 75 1009.1
20260504223308 65 28 2.0 4.0 0.00 0.00 0.00 75 1009.3
20260504223208 65 29 2.0 4.0 0.00 0.00 0.00 75 1009.3
20260504223108 65 28 2.0 4.0 0.00 0.00 0.00 75 1009.3
20260504223008 64 28 2.0 4.0 0.00 0.00 0.00 75 1009.3
20260504222908 64 28 2.0 4.0 0.00 0.00 0.00 75 1009.2
20260504222808 65 30 2.0 2.0 0.00 0.00 0.00 75 1009.2
20260504222729 65 30 2.0 2.0 0.00 0.00 0.00 75 1009.1
20260504222608 65 31 1.0 2.0 0.00 0.00 0.00 75 1009.1
20260504222508 65 33 1.0 2.0 0.00 0.00 0.00 75 1009.3
20260504222408 65 30 1.0 2.0 0.00 0.00 0.00 75 1009.1
20260504222308 65 30 2.0 2.0 0.00 0.00 0.00 75 1009.1
20260504222208 65 28 2.0 2.0 0.00 0.00 0.00 75 1009.1
20260504222107 65 28 2.0 2.0 0.00 0.00 0.00 75 1009.2
20260504222008 65 28 1.0 2.0 0.00 0.00 0.00 75 1009.2
20260504221908 65 28 1.0 2.0 0.00 0.00 0.00 75 1009.0
20260504221808 65 28 0.0 2.0 0.00 0.00 0.00 75 1009.2
20260504221708 65 27 0.0 2.0 0.00 0.00 0.00 75 1009.3
20260504221608 65 25 1.0 4.0 0.00 0.00 0.00 75 1009.2
20260504221508 65 25 1.0 4.0 0.00 0.00 0.00 75 1009.3
20260504221408 65 25 2.0 4.0 0.00 0.00 0.00 75 1009.3
20260504221308 65 25 1.0 4.0 0.00 0.00 0.00 75 1009.0
20260504221208 65 29 2.0 4.0 0.00 0.00 0.00 75 1009.2
20260504221129 65 30 1.0 4.0 0.00 0.00 0.00 75 1009.0
20260504221008 65 31 1.0 4.0 0.00 0.00 0.00 75 1009.1
20260504220929 65 31 2.0 4.0 0.00 0.00 0.00 75 1009.0
20260504220808 65 30 2.0 4.0 0.00 0.00 0.00 75 1009.0
20260504220708 65 30 2.0 4.0 0.00 0.00 0.00 75 1008.9
20260504220608 65 30 2.0 4.0 0.00 0.00 0.00 75 1009.1
20260504220508 65 31 2.0 4.0 0.00 0.00 0.00 75 1009.0
20260504220429 65 31 2.0 4.0 0.00 0.00 0.00 75 1009.2
20260504220308 65 34 2.0 4.0 0.00 0.00 0.00 74 1009.1
20260504220208 65 33 2.0 4.0 0.00 0.00 0.00 74 1009.1
20260504220108 65 32 1.0 2.0 0.00 0.00 0.00 74 1009.0
20260504220029 65 34 1.0 2.0 0.00 0.00 0.00 74 1008.9
20260504215908 66 33 1.0 2.0 0.00 0.00 0.00 74 1008.9
20260504215808 66 33 0.0 2.0 0.00 0.00 0.00 73 1008.9
20260504215708 66 33 0.0 2.0 0.00 0.00 0.00 73 1009.0
20260504215629 66 33 1.0 2.0 0.00 0.00 0.00 73 1008.9
20260504215508 66 33 0.0 2.0 0.00 0.00 0.00 72 1009.1
20260504215408 66 32 0.0 2.0 0.00 0.00 0.00 72 1009.0
20260504215329 66 31 1.0 2.0 0.00 0.00 0.00 72 1009.0
20260504215229 66 31 0.0 2.0 0.00 0.00 0.00 71 1009.0
20260504215108 66 29 1.0 2.0 0.00 0.00 0.00 71 1009.0
20260504215008 66 27 1.0 2.0 0.00 0.00 0.00 71 1009.2
20260504214929 66 28 1.0 2.0 0.00 0.00 0.00 70 1008.9
20260504214829 67 28 1.0 2.0 0.00 0.00 0.00 70 1009.1
20260504214708 67 29 1.0 2.0 0.00 0.00 0.00 69 1008.9
20260504214608 67 29 1.0 2.0 0.00 0.00 0.00 68 1009.2
20260504214529 67 28 0.0 2.0 0.00 0.00 0.00 68 1008.9
20260504214408 66 27 0.0 2.0 0.00 0.00 0.00 68 1008.9
20260504214308 66 26 1.0 2.0 0.00 0.00 0.00 67 1009.0
20260504214208 66 24 1.0 2.0 0.00 0.00 0.00 67 1009.0
20260504214108 66 24 1.0 2.0 0.00 0.00 0.00 67 1008.8
20260504214008 67 24 1.0 2.0 0.00 0.00 0.00 66 1008.9